<- Previous Day | Today | Next Day ->

All Data for 14 February 2020

 

Time A - D Temp A - D Dew Point A - D Humidity A - D Pressure A - D Wind A - D Wind Dir Gust A - D Rain Rate A - D Rain Total
00:00 6.2 2.5 77 1015.1 3.1 SW 5.4 0.0 0.0
00:01 6.2 2.5 77 1015.0 3.1 SW 5.4 0.0 0.0
00:02 6.2 2.5 77 1015.0 3.1 SW 5.4 0.0 0.0
00:03 6.2 2.5 77 1015.2 3.1 SW 5.4 0.0 0.0
00:04 6.2 2.5 77 1015.3 3.1 SW 4.5 0.0 0.0
00:05 6.2 2.5 77 1015.2 5.4 SSW 5.4 0.0 0.0
00:06 6.2 2.5 77 1015.4 3.8 SW 5.4 0.0 0.0
00:07 6.2 2.5 77 1015.2 3.8 SW 5.4 0.0 0.0
00:08 6.1 2.4 77 1015.4 2.2 S 5.4 0.0 0.0
00:09 6.2 2.5 77 1015.2 2.2 SW 5.4 0.0 0.0
00:10 6.1 2.4 77 1015.5 3.8 SW 5.4 0.0 0.0
00:11 6.1 2.4 77 1015.5 4.5 SW 5.4 0.0 0.0
00:12 6.1 2.4 77 1015.5 3.8 SW 5.4 0.0 0.0
00:13 6.1 2.4 77 1015.5 3.1 SW 5.4 0.0 0.0
00:14 6.1 2.4 77 1015.5 3.1 SW 5.4 0.0 0.0
00:15 6.1 2.4 77 1015.4 3.8 S 5.4 0.0 0.0
00:16 6.1 2.4 77 1015.5 3.1 S 4.5 0.0 0.0
00:17 6.1 2.4 77 1015.6 3.8 SW 4.5 0.0 0.0
00:18 6.1 2.4 77 1015.5 3.8 SW 4.5 0.0 0.0
00:19 6.1 2.4 77 1015.6 3.8 SW 4.5 0.0 0.0
00:20 6.1 2.4 77 1015.8 4.5 W 5.4 0.0 0.0
00:21 6.1 2.4 77 1015.6 3.8 SW 5.4 0.0 0.0
00:22 6.1 2.6 78 1015.6 4.5 SW 5.4 0.0 0.0
00:23 6.1 2.4 77 1015.5 5.4 SW 5.4 0.0 0.0
00:24 6.1 2.6 78 1015.7 6.0 S 6.0 0.0 0.0
00:25 6.1 2.6 78 1015.7 4.5 S 6.0 0.0 0.0
00:26 6.1 2.6 78 1015.6 3.8 SW 6.0 0.0 0.0
00:27 6.1 2.6 78 1015.9 3.1 SW 6.0 0.0 0.0
00:28 6.0 2.5 78 1015.8 3.8 SW 6.0 0.0 0.0
00:29 6.0 2.3 77 1015.9 4.5 SW 6.0 0.0 0.0
00:30 6.0 2.3 77 1015.8 6.0 SW 6.0 0.0 0.0
00:31 5.9 2.2 77 1015.8 3.8 S 6.0 0.0 0.0
00:32 5.9 2.4 78 1015.7 4.5 S 6.0 0.0 0.0
00:33 5.9 2.4 78 1015.8 3.8 S 6.0 0.0 0.0
00:34 5.8 2.3 78 1015.7 3.1 SW 6.0 0.0 0.0
00:35 5.8 2.3 78 1015.9 3.1 SW 6.0 0.0 0.0
00:36 5.8 2.3 78 1015.6 4.5 SW 6.0 0.0 0.0
00:37 5.8 2.3 78 1015.7 6.0 SW 6.0 0.0 0.0
00:38 5.8 2.3 78 1015.6 6.9 SW 6.9 0.0 0.0
00:39 5.8 2.3 78 1015.7 6.9 SW 6.9 0.0 0.0
00:40 5.8 2.3 78 1015.7 4.5 SW 6.9 0.0 0.0
00:41 5.8 2.3 78 1015.7 4.5 SW 6.9 0.0 0.0
00:42 5.8 2.3 78 1015.7 4.5 S 6.9 0.0 0.0
00:43 5.8 2.3 78 1015.9 6.9 SW 6.9 0.0 0.0
00:44 5.8 2.3 78 1015.6 5.4 SW 6.9 0.0 0.0
00:45 5.8 2.3 78 1015.6 6.0 SSW 6.9 0.0 0.0
00:46 5.8 2.3 78 1015.8 3.8 SW 6.9 0.0 0.0
00:47 5.9 2.4 78 1015.8 5.4 SW 6.9 0.0 0.0
00:48 5.9 2.4 78 1015.7 3.8 S 6.9 0.0 0.0
00:49 5.9 2.4 78 1015.7 4.5 SW 6.9 0.0 0.0
00:50 5.9 2.5 79 1015.8 4.5 SW 6.9 0.0 0.0
00:51 5.9 2.5 79 1015.7 3.8 S 6.9 0.0 0.0
00:52 6.0 2.6 79 1015.8 6.0 SW 6.9 0.0 0.0
00:53 6.0 2.6 79 1015.8 6.0 S 6.0 0.0 0.0
00:54 6.0 2.6 79 1016.0 5.4 S 6.0 0.0 0.0
00:55 6.0 2.6 79 1015.9 6.0 SW 6.0 0.0 0.0
00:56 6.0 2.6 79 1015.9 6.0 S 6.0 0.0 0.0
00:57 6.0 2.6 79 1016.0 5.4 SW 6.0 0.0 0.0
00:58 6.0 2.6 79 1015.9 5.4 S 6.0 0.0 0.0
01:01 6.1 2.7 79 1016.1 6.0 S 6.0 0.0 0.0
01:02 6.1 2.7 79 1015.9 6.0 S 6.0 0.0 0.0
01:03 6.1 2.7 79 1016.2 6.0 S 6.0 0.0 0.0
01:04 6.1 2.7 79 1016.0 6.0 S 6.0 0.0 0.0
01:05 6.1 2.7 79 1015.9 6.0 S 6.0 0.0 0.0
01:06 6.2 2.8 79 1016.0 3.8 SW 6.0 0.0 0.0
01:07 6.2 2.8 79 1015.9 3.1 S 6.0 0.0 0.0
01:08 6.2 2.8 79 1016.0 3.8 SE 6.0 0.0 0.0
01:09 6.2 2.8 79 1016.0 3.1 S 6.0 0.0 0.0
01:10 6.2 2.8 79 1015.9 6.0 SSE 6.0 0.0 0.0
01:11 6.2 2.8 79 1016.0 3.8 SW 6.0 0.0 0.0
01:12 6.3 3.1 80 1015.9 4.5 S 6.0 0.0 0.0
01:13 6.3 3.1 80 1015.9 4.5 S 6.0 0.0 0.0
01:14 6.3 3.1 80 1016.0 3.1 SW 6.0 0.0 0.0
01:15 6.3 3.1 80 1016.1 3.8 S 6.0 0.0 0.0
01:16 6.3 3.1 80 1016.1 4.5 S 6.0 0.0 0.0
01:17 6.3 3.1 80 1015.9 3.8 S 6.0 0.0 0.0
01:18 6.3 3.1 80 1015.9 3.8 S 6.0 0.0 0.0
01:19 6.3 3.1 80 1015.9 4.5 S 6.0 0.0 0.0
01:20 6.3 3.1 80 1016.0 3.8 S 5.4 0.0 0.0
01:21 6.3 3.1 80 1015.9 3.8 S 5.4 0.0 0.0
01:22 6.3 3.1 80 1016.0 4.5 S 5.4 0.0 0.0
01:23 6.3 3.1 80 1016.0 4.5 S 5.4 0.0 0.0
01:24 6.3 3.1 80 1015.9 4.5 S 5.4 0.0 0.0
01:25 6.3 3.1 80 1015.9 3.8 S 5.4 0.0 0.0
01:26 6.3 3.1 80 1015.9 4.5 S 5.4 0.0 0.0
01:27 6.3 3.1 80 1015.9 5.4 S 5.4 0.0 0.0
01:28 6.4 3.2 80 1015.9 3.8 S 5.4 0.0 0.0
01:29 6.4 3.2 80 1015.9 6.0 S 6.0 0.0 0.0
01:30 6.4 3.2 80 1015.9 4.5 S 6.0 0.0 0.0
01:31 6.4 3.2 80 1015.9 5.4 S 6.0 0.0 0.0
01:32 6.4 3.2 80 1015.9 4.5 SW 6.0 0.0 0.0
01:33 6.4 3.2 80 1015.9 4.5 S 6.0 0.0 0.0
01:34 6.4 3.2 80 1015.9 4.5 S 6.0 0.0 0.0
01:35 6.4 3.2 80 1015.9 4.5 S 6.0 0.0 0.0
01:36 6.4 3.2 80 1016.0 4.5 SW 6.0 0.0 0.0
01:37 6.4 3.2 80 1015.9 5.4 S 6.0 0.0 0.0
01:38 6.4 3.4 81 1015.9 6.0 S 6.0 0.0 0.0
01:39 6.4 3.2 80 1015.8 6.9 SW 6.9 0.0 0.0
01:40 6.4 3.4 81 1015.9 5.4 S 6.9 0.0 0.0
01:41 6.4 3.4 81 1015.9 3.8 S 6.9 0.0 0.0
01:42 6.4 3.4 81 1015.9 7.6 S 7.6 0.0 0.0
01:43 6.4 3.4 81 1015.9 6.0 S 7.6 0.0 0.0
01:44 6.4 3.4 81 1015.9 5.4 SW 7.6 0.0 0.0
01:45 6.4 3.4 81 1015.9 3.8 S 7.6 0.0 0.0
01:46 6.4 3.4 81 1015.9 3.8 S 7.6 0.0 0.0
01:47 6.4 3.4 81 1015.9 4.5 S 7.6 0.0 0.0
01:48 6.5 3.5 81 1016.0 4.5 S 7.6 0.0 0.0
01:49 6.4 3.4 81 1015.9 5.4 SW 7.6 0.0 0.0
01:50 6.4 3.4 81 1015.8 3.1 S 7.6 0.0 0.0
01:51 6.4 3.4 81 1015.9 3.1 SE 7.6 0.0 0.0
01:52 6.4 3.4 81 1015.8 3.8 S 7.6 0.0 0.0
01:53 6.4 3.4 81 1015.9 3.8 S 6.0 0.0 0.0
01:54 6.4 3.4 81 1015.9 3.8 S 5.4 0.0 0.0
01:55 6.4 3.4 81 1015.8 3.8 S 5.4 0.0 0.0
01:56 6.5 3.5 81 1015.7 6.0 SW 6.0 0.0 0.0
01:57 6.5 3.5 81 1015.8 4.5 S 6.0 0.0 0.0
01:58 6.5 3.5 81 1015.8 5.4 S 6.0 0.0 0.0
01:59 6.5 3.5 81 1015.8 6.0 SE 6.0 0.0 0.0
02:00 6.5 3.5 81 1015.8 5.4 SE 6.0 0.0 0.0
02:01 6.5 3.5 81 1015.7 5.4 SE 6.0 0.0 0.0
02:02 6.5 3.5 81 1015.7 5.4 SE 6.0 0.0 0.0
02:03 6.5 3.5 81 1015.7 5.4 SE 6.0 0.0 0.0
02:04 6.5 3.5 81 1015.8 5.4 SE 6.0 0.0 0.0
02:05 6.5 3.5 81 1015.9 5.4 SE 6.0 0.0 0.0
02:06 6.8 3.9 82 1016.0 6.0 SE 6.0 0.0 0.0
02:07 6.9 4.0 82 1015.9 7.6 S 7.6 0.0 0.0
02:08 7.0 4.1 82 1015.9 7.6 S 7.6 0.0 0.0
02:09 7.0 4.1 82 1015.9 9.2 S 9.2 0.0 0.0
02:10 7.1 4.2 82 1015.8 7.6 SSE 9.2 0.0 0.0
02:11 7.1 4.2 82 1015.9 6.0 S 9.2 0.0 0.0
02:12 7.2 4.3 82 1016.0 6.0 SW 9.2 0.0 0.0
02:13 7.2 4.3 82 1016.0 6.0 SW 9.2 0.0 0.0
02:14 7.2 4.3 82 1015.9 6.0 SW 9.2 0.0 0.0
02:15 7.3 4.6 83 1016.1 6.9 SW 9.2 0.0 0.0
02:16 7.3 4.4 82 1016.0 8.3 SE 9.2 0.0 0.0
02:17 7.4 4.7 83 1016.1 9.8 SW 9.8 0.0 0.0
02:18 7.4 4.7 83 1016.0 8.3 S 9.8 0.0 0.0
02:19 7.5 4.8 83 1016.0 6.9 S 9.8 0.0 0.0
02:20 7.5 4.8 83 1015.9 6.9 S 9.8 0.0 0.0
02:21 7.5 4.8 83 1016.0 9.8 S 9.8 0.0 0.0
02:22 7.6 4.9 83 1015.9 8.3 S 9.8 0.0 0.0
02:23 7.6 4.9 83 1016.0 6.9 S 9.8 0.0 0.0
02:24 7.6 4.9 83 1016.0 9.8 S 9.8 0.0 0.0
02:25 7.7 5.0 83 1016.1 9.8 S 9.8 0.0 0.0
02:26 7.7 5.0 83 1016.0 9.8 S 9.8 0.0 0.0
02:27 7.7 5.0 83 1015.8 11.4 S 11.4 0.0 0.0
02:28 7.7 5.0 83 1016.0 9.2 S 11.4 0.0 0.0
02:29 7.8 5.1 83 1015.9 9.8 S 11.4 0.0 0.0
02:30 7.8 5.1 83 1016.0 11.4 SSW 11.4 0.0 0.0
02:31 7.8 5.1 83 1015.9 10.7 S 13.0 0.0 0.0
02:32 7.9 5.2 83 1015.9 8.3 SSE 13.0 0.0 0.0
02:33 7.9 5.2 83 1016.0 12.1 SSE 13.0 0.0 0.0
02:34 7.9 5.2 83 1016.0 10.7 SE 13.0 0.0 0.0
02:35 7.9 5.4 84 1015.9 9.8 SSW 13.0 0.0 0.0
02:36 8.0 5.5 84 1015.9 9.8 S 13.0 0.0 0.0
02:37 8.0 5.5 84 1016.0 12.1 SSW 13.0 0.0 0.0
02:38 8.0 5.5 84 1015.9 9.8 S 13.0 0.0 0.0
02:39 8.0 5.5 84 1016.1 10.7 S 13.0 0.0 0.0
02:40 8.1 5.6 84 1015.9 9.8 SE 13.0 0.0 0.0
02:41 8.1 5.6 84 1015.9 9.8 SE 12.1 0.0 0.0
02:42 8.1 5.6 84 1016.0 9.2 SE 12.1 0.0 0.0
02:43 8.1 5.6 84 1016.1 9.8 SE 12.1 0.0 0.0
02:44 8.1 5.6 84 1016.0 10.7 SE 12.1 0.0 0.0
02:45 8.1 5.6 84 1016.0 9.8 SE 12.1 0.0 0.0
02:46 8.1 5.6 84 1016.1 9.2 S 12.1 0.0 0.0
02:47 8.1 5.6 84 1016.2 9.8 S 12.1 0.0 0.0
02:48 8.2 5.7 84 1016.2 9.8 S 10.7 0.0 0.0
02:49 8.2 5.7 84 1016.2 9.2 SE 10.7 0.0 0.0
02:50 8.2 5.7 84 1016.2 7.6 S 10.7 0.0 0.0
02:51 8.2 5.7 84 1016.3 8.3 S 10.7 0.0 0.0
02:52 8.2 5.7 84 1016.2 10.7 S 10.7 0.0 0.0
02:53 8.2 5.8 85 1016.2 9.2 S 10.7 0.0 0.0
02:54 8.2 5.7 84 1016.1 8.3 S 10.7 0.0 0.0
02:55 8.2 5.7 84 1016.2 9.2 SSE 10.7 0.0 0.0
02:56 8.2 5.8 85 1016.2 10.7 SSE 10.7 0.0 0.0
02:57 8.2 5.8 85 1016.2 8.3 SE 10.7 0.0 0.0
02:58 8.2 5.8 85 1016.2 7.6 SE 10.7 0.0 0.0
02:59 8.2 5.8 85 1016.1 6.9 S 10.7 0.0 0.0
03:00 8.2 5.8 85 1016.1 6.9 S 10.7 0.0 0.0
03:01 8.2 5.8 85 1016.2 6.9 S 10.7 0.0 0.0
03:02 8.2 5.8 85 1016.1 6.9 S 10.7 0.0 0.0
03:03 8.2 5.8 85 1016.1 6.9 S 10.7 0.0 0.0
03:04 8.2 5.8 85 1016.1 6.9 S 10.7 0.0 0.0
03:05 8.2 5.8 85 1016.1 8.3 WSW 10.7 0.0 0.0
03:06 8.2 5.8 85 1016.0 6.9 S 8.3 0.0 0.0
03:07 8.2 5.8 85 1016.1 7.6 SE 8.3 0.0 0.0
03:08 8.2 5.8 85 1016.0 8.3 S 8.3 0.0 0.0
03:09 8.1 5.7 85 1016.1 8.3 S 8.3 0.0 0.0
03:10 8.1 5.7 85 1016.1 8.3 S 8.3 0.0 0.0
03:11 8.1 5.7 85 1015.9 6.9 SE 8.3 0.0 0.0
03:12 8.1 5.7 85 1016.0 9.8 S 9.8 0.0 0.0
03:13 8.1 5.7 85 1016.0 8.3 SE 9.8 0.0 0.0
03:14 8.1 5.7 85 1015.9 8.3 SE 9.8 0.0 0.0
03:15 8.1 5.7 85 1015.9 9.2 S 9.8 0.0 0.0
03:16 8.0 5.6 85 1015.9 8.3 S 9.8 0.0 0.0
03:17 8.0 5.6 85 1015.9 9.8 S 9.8 0.0 0.0
03:18 8.0 5.6 85 1015.8 9.2 S 9.8 0.0 0.0
03:19 8.0 5.6 85 1015.8 5.4 SE 9.8 0.0 0.0
03:20 8.0 5.6 85 1016.0 9.2 WSW 9.8 0.0 0.0
03:21 7.9 5.5 85 1015.9 9.2 WSW 9.8 0.0 0.0
03:22 7.9 5.5 85 1015.8 7.6 S 9.8 0.0 0.0
03:23 7.9 5.5 85 1015.8 7.6 WSW 9.8 0.0 0.0
03:24 7.9 5.5 85 1015.9 7.6 S 9.8 0.0 0.0
03:25 7.9 5.5 85 1015.9 7.6 S 9.8 0.0 0.0
03:26 7.9 5.5 85 1015.8 12.1 SE 12.1 0.0 0.0
03:27 7.9 5.5 85 1015.8 11.4 S 12.1 0.0 0.0
03:28 7.9 5.5 85 1015.8 10.7 S 12.1 0.0 0.0
03:29 7.9 5.5 85 1015.5 9.8 S 12.1 0.0 0.0
03:30 7.9 5.5 85 1015.6 12.1 SE 12.1 0.0 0.0
03:31 7.9 5.5 85 1015.6 9.8 S 12.1 0.0 0.0
03:32 7.9 5.5 85 1015.7 8.3 SE 12.1 0.0 0.0
03:33 7.9 5.5 85 1015.5 10.7 S 12.1 0.0 0.0
03:34 7.9 5.5 85 1015.6 7.6 S 12.1 0.0 0.0
03:35 7.9 5.5 85 1015.6 7.6 SE 12.1 0.0 0.0
03:36 7.9 5.5 85 1015.6 8.3 S 12.1 0.0 0.0
03:37 7.8 5.4 85 1015.7 7.6 SE 12.1 0.0 0.0
03:38 7.8 5.4 85 1015.7 7.6 SE 12.1 0.0 0.0
03:39 7.8 5.4 85 1015.6 9.2 S 12.1 0.0 0.0
03:40 7.8 5.4 85 1015.8 7.6 S 10.7 0.0 0.0
03:41 7.8 5.4 85 1015.7 7.6 S 10.7 0.0 0.0
03:42 7.7 5.3 85 1015.7 8.3 S 10.7 0.0 0.0
03:43 7.7 5.3 85 1015.6 9.8 SE 10.7 0.0 0.0
03:44 7.7 5.3 85 1015.5 9.2 S 10.7 0.0 0.0
03:45 7.7 5.3 85 1015.6 9.2 S 10.7 0.0 0.0
03:46 7.7 5.3 85 1015.6 11.4 SE 11.4 0.0 0.0
03:47 7.7 5.3 85 1015.8 11.4 S 11.4 0.0 0.0
03:48 7.6 5.2 85 1015.5 12.1 S 12.1 0.0 0.0
03:49 7.7 5.3 85 1015.7 9.2 S 12.1 0.0 0.0
03:50 7.6 5.4 86 1015.7 12.1 S 12.1 0.0 0.0
03:51 7.7 5.3 85 1015.6 10.7 SE 12.1 0.0 0.0
03:52 7.6 5.2 85 1015.6 10.7 S 12.1 0.0 0.0
03:53 7.6 5.2 85 1015.6 10.7 S 12.1 0.0 0.0
03:54 7.6 5.4 86 1015.7 12.1 SE 12.1 0.0 0.0
03:55 7.6 5.4 86 1015.8 9.2 SE 12.1 0.0 0.0
03:56 7.6 5.4 86 1015.8 13.0 S 13.0 0.0 0.0
03:57 7.6 5.4 86 1015.8 11.4 SE 13.0 0.0 0.0
03:58 7.6 5.4 86 1015.8 11.4 SE 13.0 0.0 0.0
03:59 7.6 5.4 86 1015.9 10.7 SE 13.0 0.0 0.0
04:00 7.6 5.4 86 1015.8 13.0 SSW 13.0 0.0 0.0
04:01 7.6 5.4 86 1015.8 13.0 SSW 13.0 0.0 0.0
04:02 7.6 5.4 86 1015.8 13.0 SSW 13.0 0.0 0.0
04:03 7.6 5.4 86 1015.8 13.0 SSW 13.0 0.0 0.0
04:04 7.6 5.4 86 1015.9 13.0 SSW 13.0 0.0 0.0
04:05 7.7 5.5 86 1015.8 10.7 S 13.0 0.0 0.0
04:06 7.7 5.5 86 1015.9 12.1 S 13.0 0.0 0.0
04:07 7.7 5.5 86 1015.9 12.1 S 13.0 0.0 0.0
04:08 7.7 5.5 86 1015.9 9.8 SE 13.0 0.0 0.0
04:09 7.7 5.5 86 1015.9 9.8 S 13.0 0.0 0.0
04:10 7.7 5.5 86 1015.9 12.1 SE 13.0 0.0 0.0
04:11 7.7 5.5 86 1015.9 9.8 S 13.0 0.0 0.0
04:12 7.7 5.5 86 1015.9 10.7 S 13.0 0.0 0.0
04:13 7.7 5.5 86 1015.9 11.4 SE 13.0 0.0 0.0
04:14 7.7 5.5 86 1015.9 14.5 S 14.5 0.0 0.0
04:15 7.7 5.5 86 1015.9 13.0 S 14.5 0.0 0.0
04:16 7.7 5.5 86 1015.9 13.6 S 14.5 0.0 0.0
04:17 7.7 5.5 86 1015.9 9.2 S 14.5 0.0 0.0
04:18 7.7 5.5 86 1015.9 10.7 WSW 14.5 0.0 0.0
04:19 7.7 5.5 86 1015.8 13.6 S 14.5 0.0 0.0
04:20 7.7 5.5 86 1015.8 13.6 SE 14.5 0.0 0.0
04:21 7.7 5.5 86 1015.8 13.6 SE 14.5 0.0 0.0
04:22 7.6 5.4 86 1015.8 11.4 SE 14.5 0.0 0.0
04:23 7.6 5.4 86 1016.0 8.3 S 14.5 0.0 0.0
04:24 7.6 5.4 86 1015.7 15.2 S 15.2 0.0 0.0
04:25 7.6 5.4 86 1015.8 12.1 S 15.2 0.0 0.0
04:26 7.6 5.4 86 1015.7 11.4 S 15.2 0.0 0.0
04:27 7.5 5.3 86 1015.7 11.4 S 15.2 0.0 0.0
04:28 7.6 5.4 86 1015.6 11.4 SE 15.2 0.0 0.0
04:29 7.6 5.4 86 1015.6 9.2 S 15.2 0.0 0.0
04:30 7.5 5.3 86 1015.6 12.1 SE 15.2 0.0 0.0
04:31 7.5 5.3 86 1015.7 12.1 WSW 15.2 0.0 0.0
04:32 7.5 5.3 86 1015.5 17.4 SE 17.4 0.0 0.0
04:33 7.5 5.3 86 1015.6 10.7 SE 17.4 0.0 0.0
04:34 7.6 5.4 86 1015.6 13.6 S 17.4 0.0 0.0
04:35 7.6 5.4 86 1015.7 8.3 SE 17.4 0.0 0.0
04:36 7.6 5.4 86 1015.9 9.2 S 17.4 0.0 0.0
04:37 7.6 5.4 86 1015.9 9.2 S 17.4 0.0 0.0
04:38 7.6 5.4 86 1016.1 11.4 S 17.4 0.0 0.0
04:39 7.6 5.4 86 1015.9 12.1 SE 17.4 0.0 0.0
04:40 7.6 5.6 87 1015.8 9.8 WSW 17.4 0.0 0.0
04:41 7.6 5.4 86 1015.8 8.3 S 17.4 0.0 0.0
04:42 7.6 5.4 86 1015.9 9.2 S 17.4 0.0 0.0
04:43 7.7 5.7 87 1015.8 9.2 S 13.6 0.0 0.0
04:44 7.7 5.5 86 1016.0 11.4 SE 13.6 0.0 0.0
04:45 7.7 5.5 86 1015.9 7.6 S 12.1 0.0 0.0
04:46 7.7 5.5 86 1015.9 9.8 SE 12.1 0.0 0.0
04:47 7.7 5.5 86 1015.9 9.2 S 12.1 0.0 0.0
04:48 7.8 5.6 86 1015.9 9.8 S 12.1 0.0 0.0
04:49 7.8 5.6 86 1015.9 9.8 S 12.1 0.0 0.0
04:50 7.8 5.8 87 1015.9 9.8 WSW 11.4 0.0 0.0
04:51 7.8 5.6 86 1015.9 9.2 S 11.4 0.0 0.0
04:52 7.8 5.6 86 1015.9 9.2 S 11.4 0.0 0.0
04:53 7.8 5.6 86 1015.9 6.0 S 11.4 0.0 0.0
04:54 7.8 5.6 86 1015.8 6.9 S 11.4 0.0 0.0
04:55 7.8 5.8 87 1016.0 9.2 S 11.4 0.0 0.0
04:56 7.8 5.6 86 1015.9 10.7 S 10.7 0.0 0.0
04:57 7.9 5.7 86 1015.9 11.4 S 11.4 0.0 0.0
04:58 7.9 5.9 87 1015.9 10.7 S 11.4 0.0 0.0
04:59 7.9 5.9 87 1015.9 9.8 S 11.4 0.0 0.0
05:00 7.9 5.7 86 1015.9 9.8 S 11.4 0.0 0.0
05:01 7.9 5.7 86 1015.9 9.8 S 11.4 0.0 0.0
05:02 7.9 5.7 86 1016.1 9.8 S 11.4 0.0 0.0
05:03 7.9 5.7 86 1016.0 9.8 S 11.4 0.0 0.0
05:04 7.9 5.7 86 1015.9 9.8 S 11.4 0.0 0.0
05:05 7.9 5.7 86 1016.0 9.8 S 11.4 0.0 0.0
05:06 8.0 6.0 87 1015.9 8.3 WSW 11.4 0.0 0.0
05:07 8.0 6.0 87 1016.0 11.4 S 11.4 0.0 0.0
05:08 8.0 6.0 87 1016.0 8.3 SE 11.4 0.0 0.0
05:09 8.0 6.0 87 1015.9 13.6 SE 13.6 0.0 0.0
05:10 8.0 6.0 87 1015.9 8.3 S 13.6 0.0 0.0
05:11 8.0 6.0 87 1016.0 9.2 S 13.6 0.0 0.0
05:12 8.0 6.0 87 1015.8 10.7 S 13.6 0.0 0.0
05:13 8.0 6.0 87 1015.9 12.1 SE 13.6 0.0 0.0
05:14 8.0 6.0 87 1015.9 10.7 S 13.6 0.0 0.0
05:15 8.0 6.0 87 1015.9 8.3 SE 13.6 0.0 0.0
05:16 8.0 6.0 87 1015.9 11.4 S 13.6 0.0 0.0
05:17 8.0 6.0 87 1015.9 11.4 S 13.6 0.0 0.0
05:18 8.0 6.0 87 1015.8 12.1 S 13.6 0.0 0.0
05:19 8.0 6.0 87 1015.9 11.4 S 13.0 0.0 0.0
05:20 8.0 6.0 87 1015.9 11.4 SE 13.0 0.0 0.0
05:21 8.0 6.0 87 1015.8 12.1 SSW 13.0 0.0 0.0
05:22 8.1 6.1 87 1015.8 9.2 S 13.0 0.0 0.0
05:23 8.1 6.1 87 1016.0 10.7 SE 13.0 0.0 0.0
05:24 8.1 6.1 87 1015.9 13.0 SE 13.0 0.0 0.0
05:25 8.1 6.1 87 1016.0 12.1 S 13.0 0.0 0.0
05:26 8.1 6.1 87 1015.9 12.1 S 13.0 0.0 0.0
05:27 8.1 6.1 87 1015.9 14.5 S 14.5 0.0 0.0
05:28 8.1 6.1 87 1015.8 13.0 S 15.9 0.0 0.0
05:29 8.1 6.1 87 1015.9 15.9 S 15.9 0.0 0.0
05:30 8.1 6.1 87 1015.9 15.2 S 15.9 0.0 0.0
05:31 8.1 6.1 87 1015.9 15.2 SE 15.9 0.0 0.0
05:32 8.2 6.2 87 1015.9 11.4 S 15.9 0.0 0.0
05:33 8.2 6.2 87 1015.8 13.0 S 15.9 0.0 0.0
05:34 8.2 6.2 87 1015.9 15.2 SSE 15.9 0.0 0.0
05:35 8.2 6.2 87 1015.9 15.2 S 18.3 0.0 0.0
05:36 8.2 6.2 87 1015.9 13.6 S 18.3 0.0 0.0
05:37 8.2 6.2 87 1015.8 14.5 SE 18.3 0.0 0.0
05:38 8.2 6.2 87 1015.8 14.5 SE 18.3 0.0 0.0
05:39 8.2 6.2 87 1016.1 16.8 S 18.3 0.0 0.0
05:40 8.2 6.2 87 1015.9 12.1 S 18.3 0.0 0.0
05:41 8.3 6.3 87 1015.9 13.0 S 18.3 0.0 0.0
05:42 8.3 6.3 87 1015.8 16.8 S 18.3 0.0 0.0
05:43 8.3 6.3 87 1015.9 16.8 S 18.3 0.0 0.0
05:44 8.3 6.3 87 1015.9 14.5 S 18.3 0.0 0.0
05:45 8.3 6.3 87 1015.9 14.5 S 16.8 0.0 0.0
05:46 8.3 6.3 87 1016.0 15.9 S 16.8 0.0 0.0
05:47 8.3 6.3 87 1016.0 14.5 SE 16.8 0.0 0.0
05:48 8.4 6.4 87 1016.2 15.2 SSW 16.8 0.0 0.0
05:49 8.4 6.4 87 1015.9 15.2 S 16.8 0.0 0.0
05:50 8.3 6.3 87 1015.9 14.5 S 16.8 0.0 0.0
05:51 8.4 6.4 87 1016.1 16.8 S 16.8 0.0 0.0
05:52 8.4 6.4 87 1016.2 15.2 SE 16.8 0.0 0.0
05:53 8.4 6.4 87 1016.0 15.2 S 16.8 0.0 0.0
05:54 8.4 6.4 87 1016.0 15.2 SE 16.8 0.0 0.0
05:55 8.4 6.4 87 1016.1 14.5 S 16.8 0.0 0.0
05:56 8.4 6.4 87 1016.2 14.5 S 16.8 0.0 0.0
05:57 8.4 6.4 87 1015.9 16.8 S 16.8 0.0 0.0
05:58 8.4 6.4 87 1016.0 15.9 S 16.8 0.0 0.0
05:59 8.4 6.4 87 1016.2 13.0 S 16.8 0.0 0.0
06:00 8.4 6.4 87 1016.2 14.5 WSW 16.8 0.0 0.0
06:01 8.4 6.4 87 1016.2 14.5 WSW 16.8 0.0 0.0
06:02 8.5 6.5 87 1016.2 14.5 WSW 16.8 0.0 0.0
06:03 8.5 6.5 87 1016.1 15.9 S 16.8 0.0 0.0
06:04 8.5 6.5 87 1016.1 20.6 NNE 20.6 0.0 0.0
06:05 8.5 6.5 87 1016.0 15.9 S 20.6 0.0 0.0
06:06 8.5 6.5 87 1016.0 19.0 S 20.6 0.0 0.0
06:07 8.5 6.5 87 1016.0 17.4 S 20.6 0.0 0.0
06:08 8.5 6.5 87 1016.1 15.2 WSW 20.6 0.0 0.0
06:09 8.6 6.6 87 1016.1 17.4 S 20.6 0.0 0.0
06:10 8.6 6.6 87 1016.1 19.0 WSW 20.6 0.0 0.0
06:11 8.6 6.6 87 1016.2 20.6 S 20.6 0.0 0.0
06:12 8.6 6.6 87 1016.1 15.2 S 20.6 0.0 0.0
06:13 8.6 6.6 87 1016.1 17.4 S 20.6 0.0 0.0
06:14 8.6 6.6 87 1016.1 17.4 S 20.6 0.0 0.0
06:15 8.6 6.6 87 1016.1 15.9 S 20.6 0.0 0.0
06:16 8.6 6.6 87 1016.0 15.2 SSE 20.6 0.0 0.0
06:17 8.6 6.6 87 1016.1 16.8 S 20.6 0.0 0.0
06:18 8.6 6.6 87 1016.1 20.6 S 20.6 0.0 0.0
06:19 8.6 6.6 87 1016.1 20.6 S 22.1 0.0 0.0
06:20 8.6 6.6 87 1016.2 18.3 S 22.1 0.0 0.0
06:21 8.6 6.6 87 1016.0 22.1 S 22.1 0.0 0.0
06:22 8.6 6.6 87 1016.0 13.6 S 22.1 0.0 0.0
06:23 8.6 6.6 87 1016.1 15.2 SE 22.1 0.0 0.0
06:24 8.6 6.6 87 1016.1 16.8 S 22.1 0.0 0.0
06:25 8.6 6.6 87 1015.9 15.9 SE 22.1 0.0 0.0
06:26 8.6 6.6 87 1016.0 18.3 WSW 22.1 0.0 0.0
06:27 8.6 6.6 87 1016.0 18.3 SE 22.1 0.0 0.0
06:28 8.6 6.6 87 1016.0 15.2 S 22.1 0.0 0.0
06:29 8.7 6.7 87 1016.0 17.4 S 22.1 0.0 0.0
06:30 8.6 6.6 87 1015.9 17.4 S 22.1 0.0 0.0
06:31 8.7 6.7 87 1016.1 15.2 S 22.1 0.0 0.0
06:32 8.7 6.7 87 1016.0 15.9 S 18.3 0.0 0.0
06:33 8.7 6.7 87 1015.9 16.8 S 18.3 0.0 0.0
06:34 8.7 6.7 87 1015.9 15.9 S 18.3 0.0 0.0
06:35 8.7 6.7 87 1015.8 16.8 WSW 18.3 0.0 0.0
06:36 8.7 6.7 87 1016.0 16.8 SE 18.3 0.0 0.0
06:37 8.7 6.7 87 1016.0 21.3 S 21.3 0.0 0.0
06:38 8.7 6.7 87 1015.9 16.8 S 21.3 0.0 0.0
06:39 8.7 6.7 87 1016.2 19.0 S 21.3 0.0 0.0
06:40 8.7 6.7 87 1016.0 15.2 S 21.3 0.0 0.0
06:41 8.7 6.7 87 1015.9 20.6 S 21.3 0.0 0.0
06:42 8.7 6.7 87 1016.0 16.8 S 21.3 0.0 0.0
06:43 8.7 6.7 87 1015.9 16.8 SE 21.3 0.0 0.0
06:44 8.7 6.7 87 1016.0 19.0 S 21.3 0.0 0.0
06:45 8.7 6.7 87 1015.8 15.9 SE 21.3 0.0 0.0
06:46 8.7 6.7 87 1016.0 17.4 WSW 21.3 0.0 0.0
06:47 8.7 6.7 87 1015.8 19.0 SE 21.3 0.0 0.0
06:48 8.7 6.7 87 1015.9 13.0 S 20.6 0.0 0.0
06:49 8.7 6.7 87 1015.9 17.4 SSW 20.6 0.0 0.0
06:50 8.8 6.8 87 1015.9 19.7 SE 20.6 0.0 0.0
06:51 8.8 6.8 87 1015.8 19.7 SE 20.6 0.0 0.0
06:52 8.8 6.8 87 1016.0 18.3 S 19.7 0.0 0.0
06:53 8.8 6.8 87 1015.9 14.5 S 19.7 0.0 0.0
06:54 8.8 6.8 87 1015.9 19.7 SE 19.7 0.0 0.0
06:55 8.8 6.8 87 1015.9 19.0 S 19.7 0.0 0.0
06:56 8.8 6.8 87 1015.9 15.2 S 19.7 0.0 0.0
06:57 8.8 6.8 87 1015.9 15.2 S 19.7 0.0 0.0
06:58 8.8 6.8 87 1015.8 18.3 S 19.7 0.0 0.0
06:59 8.8 6.8 87 1016.0 19.0 S 19.7 0.0 0.0
07:00 8.8 6.8 87 1016.0 15.2 S 19.7 0.0 0.0
07:01 8.8 6.8 87 1015.9 15.2 S 19.7 0.0 0.0
07:02 8.8 6.8 87 1015.9 13.6 S 19.7 0.0 0.0
07:03 8.8 6.8 87 1016.0 15.9 S 19.7 0.0 0.0
07:04 8.8 6.8 87 1015.9 17.4 S 19.7 0.0 0.0
07:05 8.8 6.8 87 1015.9 16.8 S 19.7 0.0 0.0
07:06 8.8 6.8 87 1016.0 17.4 S 19.7 0.0 0.0
07:07 8.8 6.6 86 1016.0 21.3 S 21.3 0.0 0.0
07:08 8.8 6.6 86 1015.8 20.6 SE 21.3 0.0 0.0
07:09 8.8 6.6 86 1015.9 16.8 S 21.3 0.0 0.0
07:10 8.8 6.6 86 1016.0 15.9 S 21.3 0.0 0.0
07:11 8.9 6.7 86 1016.0 16.8 S 21.3 0.0 0.0
07:12 8.9 6.7 86 1015.9 14.5 S 21.3 0.0 0.0
07:13 8.9 6.7 86 1016.0 17.4 S 21.3 0.0 0.0
07:14 8.9 6.7 86 1015.9 16.8 SE 21.3 0.0 0.0
07:15 8.9 6.7 86 1015.9 13.0 S 21.3 0.0 0.0
07:16 8.9 6.7 86 1015.8 15.2 S 21.3 0.0 0.0
07:17 8.9 6.7 86 1015.9 15.2 S 21.3 0.0 0.0
07:18 8.9 6.7 86 1015.9 17.4 S 20.6 0.0 0.0
07:19 8.9 6.7 86 1016.1 18.3 S 18.3 0.0 0.0
07:20 8.9 6.7 86 1015.8 15.9 SE 18.3 0.0 0.0
07:21 8.9 6.7 86 1015.9 18.3 S 18.3 0.0 0.0
07:22 9.0 6.8 86 1016.3 15.9 S 18.3 0.0 0.0
07:23 8.9 6.7 86 1015.9 14.5 SE 18.3 0.0 0.0
07:24 9.0 6.8 86 1016.1 21.3 SE 21.3 0.0 0.0
07:25 9.0 6.8 86 1016.1 21.3 SE 21.3 0.0 0.0
07:26 9.0 6.8 86 1016.0 19.7 SE 21.3 0.0 0.0
07:27 9.0 6.8 86 1016.0 19.0 SE 21.3 0.0 0.0
07:28 9.0 6.8 86 1015.9 17.4 S 21.3 0.0 0.0
07:29 9.0 6.8 86 1015.9 19.0 SE 21.3 0.0 0.0
07:30 9.0 6.8 86 1015.9 15.2 S 21.3 0.0 0.0
07:31 9.0 6.8 86 1016.1 13.6 S 21.3 0.0 0.0
07:32 9.0 6.8 86 1015.9 15.2 S 21.3 0.0 0.0
07:33 9.1 6.9 86 1016.1 19.0 SE 21.3 0.0 0.0
07:34 9.0 6.8 86 1016.0 19.0 S 21.3 0.0 0.0
07:35 9.0 6.8 86 1015.9 17.4 S 19.7 0.0 0.0
07:36 9.1 6.9 86 1016.0 18.3 S 23.5 0.0 0.0
07:37 9.1 6.9 86 1016.0 14.5 S 23.5 0.0 0.0
07:38 9.1 6.9 86 1015.8 19.0 SE 23.5 0.0 0.0
07:39 9.1 6.9 86 1015.8 15.2 SE 23.5 0.0 0.0
07:40 9.1 6.9 86 1015.9 15.2 SE 23.5 0.0 0.0
07:41 9.1 6.9 86 1015.9 22.1 S 23.5 0.0 0.0
07:42 9.1 6.9 86 1016.0 23.5 SE 23.5 0.0 0.0
07:43 9.1 6.7 85 1016.0 22.1 S 23.5 0.0 0.0
07:44 9.1 6.9 86 1016.0 18.3 S 23.5 0.0 0.0
07:45 9.1 6.7 85 1016.1 16.8 S 23.5 0.0 0.0
07:46 9.1 6.7 85 1016.0 22.8 SE 23.5 0.0 0.0
07:47 9.1 6.7 85 1016.0 19.0 SSW 23.5 0.0 0.0
07:48 9.1 6.7 85 1016.2 15.9 S 23.5 0.0 0.0
07:49 9.1 6.7 85 1016.0 22.1 S 23.5 0.0 0.0
07:50 9.1 6.7 85 1016.0 18.3 SE 23.5 0.0 0.0
07:51 9.2 6.8 85 1016.0 19.7 WSW 23.5 0.0 0.0
07:52 9.2 6.8 85 1016.1 15.9 SE 25.1 0.0 0.0
07:53 9.2 6.8 85 1016.1 15.9 SE 25.1 0.0 0.0
07:54 9.2 6.8 85 1016.2 19.0 S 25.1 0.0 0.0
07:55 9.2 6.8 85 1016.0 21.3 S 25.1 0.0 0.0
07:56 9.2 6.8 85 1016.1 22.8 WSW 25.1 0.0 0.0
07:57 9.2 6.8 85 1016.0 16.8 S 25.1 0.0 0.0
07:58 9.2 6.8 85 1016.0 17.4 SE 25.1 0.0 0.0
07:59 9.2 6.6 84 1015.9 17.4 S 25.1 0.0 0.0
08:00 9.2 6.8 85 1015.9 15.2 SE 25.1 0.0 0.0
08:01 9.2 6.6 84 1015.9 16.8 SE 25.1 0.0 0.0
08:02 9.2 6.6 84 1015.9 19.7 S 24.4 0.0 0.0
08:03 9.2 6.6 84 1016.0 13.0 S 24.4 0.0 0.0
08:04 9.2 6.6 84 1015.9 17.4 S 24.4 0.0 0.0
08:05 9.2 6.6 84 1015.9 19.7 SE 22.8 0.0 0.0
08:06 9.2 6.6 84 1015.9 16.8 SE 19.7 0.0 0.0
08:07 9.2 6.6 84 1015.9 19.7 SE 19.7 0.0 0.0
08:08 9.2 6.6 84 1015.9 20.6 WSW 20.6 0.0 0.0
08:09 9.2 6.6 84 1016.0 15.9 S 20.6 0.0 0.0
08:10 9.3 6.7 84 1015.9 21.3 S 21.3 0.0 0.0
08:11 9.2 6.6 84 1015.9 20.6 S 21.3 0.0 0.0
08:12 9.3 6.7 84 1015.8 21.3 S 21.3 0.0 0.0
08:13 9.2 6.6 84 1015.7 14.5 S 21.3 0.0 0.0
08:14 9.3 6.7 84 1015.9 15.9 S 21.3 0.0 0.0
08:15 9.3 6.7 84 1015.7 19.7 S 21.3 0.0 0.0
08:16 9.3 6.7 84 1015.7 17.4 S 21.3 0.0 0.0
08:17 9.3 6.7 84 1015.7 15.9 WSW 21.3 0.0 0.0
08:18 9.3 6.7 84 1015.7 17.4 SSE 21.3 0.0 0.0
08:19 9.3 6.6 83 1015.7 19.0 SE 21.3 0.0 0.0
08:20 9.3 6.6 83 1015.5 15.9 SE 23.5 0.0 0.0
08:21 9.3 6.6 83 1015.5 15.9 SE 23.5 0.0 0.0
08:22 9.3 6.6 83 1015.6 19.0 SE 23.5 0.0 0.0
08:23 9.3 6.6 83 1015.5 15.2 SE 23.5 0.0 0.0
08:24 9.3 6.6 83 1015.6 13.6 S 23.5 0.0 0.0
08:25 9.4 6.7 83 1015.6 16.8 S 23.5 0.0 0.0
08:26 9.4 6.7 83 1015.6 17.4 S 23.5 0.0 0.0
08:27 9.4 6.7 83 1015.6 17.4 S 23.5 0.0 0.0
08:28 9.4 6.7 83 1015.5 18.3 E 23.5 0.0 0.0
08:29 9.4 6.7 83 1015.6 19.0 SE 23.5 0.0 0.0
08:30 9.4 6.7 83 1015.7 18.3 WSW 19.0 0.0 0.0
08:31 9.4 6.7 83 1015.7 15.9 S 19.0 0.0 0.0
08:32 9.5 6.8 83 1015.7 21.3 SE 21.3 0.0 0.0
08:33 9.5 6.8 83 1015.8 17.4 S 21.3 0.0 0.0
08:34 9.5 6.6 82 1015.8 16.8 SE 21.3 0.0 0.0
08:35 9.5 6.6 82 1015.7 17.4 S 21.3 0.0 0.0
08:36 9.5 6.8 83 1015.8 15.9 S 21.3 0.0 0.0
08:37 9.5 6.6 82 1015.7 18.3 S 21.3 0.0 0.0
08:38 9.5 6.8 83 1015.6 18.3 S 21.3 0.0 0.0
08:39 9.5 6.6 82 1015.7 14.5 S 21.3 0.0 0.0
08:40 9.5 6.6 82 1015.6 16.8 SE 21.3 0.0 0.0
08:41 9.5 6.6 82 1015.7 20.6 SE 21.3 0.0 0.0
08:42 9.5 6.6 82 1015.6 19.7 S 21.3 0.0 0.0
08:43 9.5 6.8 83 1015.7 15.2 WSW 20.6 0.0 0.0
08:44 9.6 6.7 82 1015.7 20.6 S 20.6 0.0 0.0
08:45 9.6 6.7 82 1015.7 15.9 S 20.6 0.0 0.0
08:46 9.6 6.7 82 1015.7 18.3 SE 20.6 0.0 0.0
08:47 9.6 6.7 82 1015.8 19.0 SE 20.6 0.0 0.0
08:48 9.6 6.7 82 1015.7 19.7 S 20.6 0.0 0.0
08:49 9.7 6.8 82 1015.5 19.0 S 20.6 0.0 0.0
08:50 9.6 6.7 82 1015.8 16.8 S 20.6 0.0 0.0
08:51 9.7 6.8 82 1015.8 21.3 S 21.3 0.0 0.0
08:52 9.7 6.8 82 1015.7 18.3 NNE 21.3 0.0 0.0
08:53 9.7 6.8 82 1015.5 13.6 SE 21.3 0.0 0.0
08:54 9.7 6.8 82 1015.6 22.1 SE 22.1 0.0 0.0
08:55 9.7 6.8 82 1015.5 18.3 SSW 22.1 0.0 0.0
08:56 9.7 6.8 82 1015.5 13.0 S 22.1 0.0 0.0
08:57 9.7 6.8 82 1015.7 19.7 S 22.1 0.0 0.0
08:58 9.7 6.8 82 1015.7 15.9 SE 22.1 0.0 0.0
08:59 9.7 6.8 82 1015.5 18.3 SE 22.1 0.0 0.0
09:00 9.7 6.8 82 1015.8 19.0 SE 22.1 0.0 0.0
09:01 9.7 6.8 82 1015.8 19.0 SE 22.1 0.0 0.0
09:02 9.7 6.8 82 1015.5 19.0 SE 22.1 0.0 0.0
09:03 9.7 6.8 82 1015.7 19.0 SE 22.1 0.0 0.0
09:04 9.7 6.8 82 1015.7 19.0 SE 19.7 0.0 0.0
09:05 9.8 6.9 82 1015.8 17.4 S 19.7 0.0 0.0
09:06 9.9 7.0 82 1015.6 14.5 S 19.7 0.0 0.0
09:07 9.9 7.0 82 1015.7 21.3 SE 21.3 0.0 0.0
09:08 9.9 7.0 82 1015.7 19.7 S 21.3 0.0 0.0
09:09 9.9 7.0 82 1015.5 22.1 S 22.1 0.0 0.0
09:10 9.9 7.0 82 1015.7 24.4 S 24.4 0.0 0.0
09:11 9.9 7.0 82 1015.6 19.7 SE 24.4 0.0 0.0
09:12 9.9 7.0 82 1015.7 20.6 S 24.4 0.0 0.0
09:13 9.9 7.0 82 1015.8 18.3 SE 24.4 0.0 0.0
09:14 10.0 7.1 82 1015.7 22.8 E 24.4 0.0 0.0
09:15 10.0 7.1 82 1015.6 19.7 S 24.4 0.0 0.0
09:16 10.0 7.1 82 1015.5 15.9 WSW 24.4 0.0 0.0
09:17 10.0 7.1 82 1015.6 25.9 SE 25.9 0.0 0.0
09:18 10.0 7.1 82 1015.7 20.6 S 25.9 0.0 0.0
09:19 10.0 7.1 82 1015.6 19.7 S 25.9 0.0 0.0
09:20 10.0 7.1 82 1015.5 20.6 S 25.9 0.0 0.0
09:21 10.0 7.1 82 1015.6 21.3 SE 25.9 0.0 0.0
09:22 10.0 7.1 82 1015.5 17.4 SE 25.9 0.0 0.0
09:23 10.0 7.1 82 1015.4 17.4 SE 25.9 0.0 0.0
09:24 10.0 7.1 82 1015.7 25.9 SE 25.9 0.0 0.0
09:25 10.0 7.1 82 1015.7 15.9 S 25.9 0.0 0.0
09:26 10.0 7.1 82 1015.5 21.3 S 25.9 0.0 0.0
09:27 10.0 7.1 82 1015.5 22.1 SE 25.9 0.0 0.0
09:28 10.0 7.1 82 1015.4 23.5 S 25.9 0.0 0.0
09:29 10.0 7.1 82 1015.6 27.3 SE 27.3 0.0 0.0
09:30 10.0 7.1 82 1015.4 20.6 NE 27.3 0.0 0.0
09:31 10.1 7.2 82 1015.4 20.6 S 27.3 0.0 0.0
09:32 10.1 7.2 82 1015.5 26.6 S 27.3 0.0 0.0
09:33 10.0 7.1 82 1015.5 16.8 S 27.3 0.0 0.0
09:34 10.1 7.2 82 1015.6 19.7 SE 27.3 0.0 0.0
09:35 10.1 7.2 82 1015.5 19.0 S 27.3 0.0 0.0
09:36 10.1 7.2 82 1015.6 19.7 SE 27.3 0.0 0.0
09:37 10.1 7.2 82 1015.7 19.7 SE 27.3 0.0 0.0
09:38 10.1 7.2 82 1015.7 19.7 SE 27.3 0.0 0.0
09:39 10.1 7.3 83 1015.7 22.1 S 27.3 0.0 0.0
09:40 10.1 7.3 83 1015.5 16.8 S 26.6 0.0 0.0
09:41 10.1 7.3 83 1015.5 15.9 S 26.6 0.0 0.0
09:42 10.1 7.3 83 1015.6 22.1 S 26.6 0.0 0.0
09:43 10.1 7.3 83 1015.7 23.5 S 26.6 0.0 0.0
09:44 10.1 7.3 83 1015.7 19.7 SE 23.5 0.0 0.0
09:45 10.1 7.3 83 1015.7 16.8 SSE 23.5 0.0 0.0
09:46 10.1 7.3 83 1015.6 14.5 S 23.5 0.0 0.0
09:47 10.1 7.3 83 1015.9 24.4 SE 24.4 0.0 0.0
09:48 10.1 7.3 83 1015.6 25.1 SE 27.3 0.0 0.0
09:49 10.1 7.3 83 1015.6 19.0 S 27.3 0.0 0.0
09:50 10.1 7.3 83 1015.8 18.3 SE 27.3 0.0 0.0
09:51 10.1 7.3 83 1015.6 25.9 SE 27.3 0.0 0.0
09:52 10.1 7.3 83 1015.7 21.3 S 27.3 0.0 0.0
09:53 10.1 7.3 83 1015.6 25.9 S 27.3 0.0 0.0
09:54 10.1 7.3 83 1015.7 24.4 S 27.3 0.0 0.0
09:55 10.2 7.4 83 1015.7 16.8 S 27.3 0.0 0.0
09:56 10.2 7.4 83 1015.4 21.3 S 27.3 0.0 0.0
09:57 10.2 7.4 83 1015.6 15.9 S 27.3 0.0 0.0
09:58 10.2 7.4 83 1015.6 18.3 WSW 27.3 0.0 0.0
09:59 10.2 7.4 83 1015.5 22.1 WSW 25.9 0.0 0.0
10:00 10.2 7.4 83 1015.5 22.1 S 25.9 0.0 0.0
10:01 10.2 7.6 84 1015.7 28.2 SE 28.2 0.0 0.0
10:02 10.2 7.6 84 1015.6 19.0 SE 28.2 0.0 0.0
10:03 10.2 7.6 84 1015.5 21.3 S 28.2 0.0 0.0
10:04 10.2 7.6 84 1015.6 25.9 SE 28.2 0.0 0.0
10:05 10.2 7.6 84 1015.5 21.3 SE 28.2 0.0 0.0
10:06 10.2 7.6 84 1015.7 23.5 S 28.2 0.0 0.0
10:07 10.2 7.6 84 1015.6 18.3 SSW 28.2 0.0 0.0
10:08 10.2 7.6 84 1015.6 18.3 S 28.2 0.0 0.0
10:09 10.2 7.6 84 1015.6 24.4 S 28.2 0.0 0.0
10:10 10.2 7.6 84 1015.5 20.6 SE 28.2 0.0 0.0
10:11 10.2 7.6 84 1015.7 27.3 WSW 28.2 0.0 0.0
10:12 10.2 7.6 84 1015.6 21.3 SE 27.3 0.0 0.0
10:13 10.2 7.6 84 1015.6 17.4 SSE 27.3 0.0 0.0
10:14 10.2 7.6 84 1015.6 22.1 S 27.3 0.0 0.0
10:15 10.2 7.6 84 1015.7 25.9 SE 27.3 0.0 0.0
10:16 10.2 7.6 84 1015.6 18.3 S 27.3 0.0 0.0
10:17 10.2 7.6 84 1015.7 20.6 S 27.3 0.0 0.0
10:18 10.2 7.6 84 1015.6 16.8 S 27.3 0.0 0.0
10:19 10.2 7.6 84 1015.8 22.8 SE 27.3 0.0 0.0
10:20 10.2 7.6 84 1015.7 22.1 S 27.3 0.0 0.0
10:21 10.2 7.8 85 1015.7 20.6 S 26.6 0.0 0.0
10:22 10.2 7.8 85 1015.8 22.8 S 26.6 0.0 0.0
10:23 10.2 7.8 85 1015.8 22.8 S 26.6 0.0 0.0
10:24 10.2 7.8 85 1015.8 23.5 NNE 26.6 0.0 0.0
10:25 10.2 7.8 85 1015.8 23.5 NNE 25.9 0.0 0.0
10:26 10.2 7.8 85 1015.7 20.6 S 23.5 0.0 0.0
10:27 10.2 7.8 85 1015.8 19.0 SE 23.5 0.0 0.0
10:28 10.2 7.8 85 1015.7 20.6 S 23.5 0.0 0.0
10:29 10.2 7.8 85 1015.8 19.0 S 23.5 0.0 0.0
10:30 10.1 7.7 85 1015.8 22.1 S 23.5 0.0 0.0
10:31 10.1 7.7 85 1015.8 21.3 SE 23.5 0.8 0.1
10:32 10.1 7.7 85 1015.8 20.6 S 23.5 0.8 0.1
10:33 10.1 7.7 85 1015.8 16.8 SE 23.5 0.8 0.1
10:34 10.1 7.7 85 1015.8 21.3 SE 23.5 0.8 0.1
10:35 10.1 7.9 86 1015.6 22.1 SE 23.5 0.8 0.1
10:36 10.1 7.9 86 1015.7 25.1 SE 25.1 0.0 0.1
10:37 10.1 7.9 86 1015.8 19.7 S 25.1 0.0 0.1
10:38 10.1 7.9 86 1015.7 19.0 S 25.1 0.0 0.1
10:39 10.2 8.0 86 1015.7 23.5 S 25.1 0.0 0.1
10:40 10.1 7.9 86 1015.6 21.3 SE 25.1 0.0 0.1
10:41 10.1 7.9 86 1015.8 21.3 SE 25.1 0.0 0.1
10:42 10.1 7.9 86 1015.8 22.1 S 25.1 0.0 0.1
10:43 10.1 7.9 86 1015.8 23.5 SE 25.1 0.0 0.1
10:44 10.1 7.9 86 1015.7 21.3 S 25.1 0.0 0.1
10:45 10.1 7.9 86 1015.9 22.1 SE 25.1 0.0 0.1
10:46 10.1 8.0 87 1016.0 26.6 SE 26.6 0.0 0.1
10:47 10.1 8.0 87 1015.7 22.8 S 26.6 0.0 0.1
10:48 10.2 8.1 87 1015.9 19.7 S 26.6 0.0 0.1
10:49 10.2 8.1 87 1015.9 19.0 S 26.6 0.0 0.1
10:50 10.2 8.1 87 1015.9 23.5 S 26.6 0.0 0.1
10:51 10.2 8.1 87 1015.8 25.9 ESE 26.6 0.0 0.1
10:52 10.2 8.1 87 1015.9 21.3 WSW 26.6 0.0 0.1
10:53 10.2 8.1 87 1015.9 21.3 WSW 26.6 0.0 0.1
10:54 10.2 8.1 87 1016.0 19.0 SE 26.6 0.0 0.1
10:55 10.2 8.1 87 1016.1 19.7 S 26.6 0.0 0.1
10:56 10.2 8.1 87 1015.9 18.3 S 26.6 0.0 0.1
10:57 10.2 8.1 87 1016.0 19.0 S 25.9 0.0 0.1
10:58 10.2 8.3 88 1016.0 22.8 S 25.9 0.0 0.1
10:59 10.2 8.3 88 1015.8 19.7 S 25.9 0.0 0.1
11:00 10.2 8.3 88 1015.9 20.6 SE 25.9 0.0 0.1
11:01 10.2 8.3 88 1015.9 19.7 SE 25.1 0.0 0.1
11:02 10.2 8.3 88 1016.0 22.8 WSW 25.1 0.0 0.1
11:03 10.2 8.3 88 1015.9 20.6 S 25.1 0.0 0.1
11:04 10.2 8.3 88 1015.9 24.4 S 25.1 0.0 0.1
11:05 10.3 8.4 88 1015.9 19.7 S 24.4 0.0 0.1
11:06 10.2 8.3 88 1015.9 20.6 SE 24.4 0.0 0.1
11:07 10.3 8.4 88 1015.9 25.1 S 25.1 0.0 0.1
11:08 10.3 8.4 88 1015.8 19.7 SE 25.1 0.0 0.1
11:09 10.3 8.4 88 1015.9 20.6 SE 25.1 0.0 0.1
11:10 10.3 8.4 88 1016.0 19.7 S 25.1 0.0 0.1
11:11 10.3 8.6 89 1016.0 26.6 SE 26.6 0.0 0.1
11:12 10.3 8.6 89 1015.9 24.4 SE 26.6 0.0 0.1
11:13 10.3 8.6 89 1015.9 18.3 SE 26.6 0.0 0.1
11:14 10.3 8.6 89 1015.7 20.6 SE 26.6 0.0 0.1
11:15 10.3 8.6 89 1015.8 19.0 SE 26.6 0.0 0.1
11:16 10.3 8.6 89 1015.8 19.7 WSW 26.6 0.0 0.1
11:17 10.3 8.6 89 1015.8 23.5 S 26.6 0.0 0.1
11:18 10.3 8.6 89 1015.9 22.8 WSW 26.6 0.0 0.1
11:19 10.4 8.7 89 1015.9 26.6 SE 26.6 0.0 0.1
11:20 10.4 8.7 89 1015.9 19.0 S 26.6 0.0 0.1
11:21 10.4 8.7 89 1015.9 19.0 S 26.6 0.0 0.1
11:22 10.4 8.8 90 1015.7 19.7 WSW 26.6 0.0 0.1
11:23 10.4 8.8 90 1015.9 22.1 S 26.6 0.0 0.1
11:24 10.4 8.8 90 1015.8 24.4 S 26.6 0.0 0.1
11:25 10.4 8.8 90 1015.8 19.0 S 26.6 0.0 0.1
11:26 10.4 8.8 90 1015.8 17.4 S 26.6 0.0 0.1
11:27 10.4 8.8 90 1015.8 22.8 S 26.6 0.0 0.1
11:28 10.4 8.8 90 1015.6 16.8 S 26.6 0.0 0.1
11:29 10.4 8.8 90 1015.6 19.0 S 25.9 0.0 0.1
11:30 10.4 8.8 90 1015.7 19.7 SE 25.1 0.0 0.1
11:31 10.4 8.8 90 1015.8 23.5 S 25.1 0.0 0.1
11:32 10.4 8.8 90 1015.7 23.5 WSW 25.1 0.0 0.1
11:33 10.4 8.8 90 1015.6 25.9 S 25.9 0.0 0.1
11:34 10.4 8.8 90 1015.7 20.6 S 25.9 0.0 0.1
11:35 10.4 8.8 90 1015.7 20.6 S 25.9 0.0 0.1
11:36 10.4 8.8 90 1015.6 22.1 WSW 25.9 0.0 0.1
11:37 10.4 8.8 90 1015.6 16.8 S 25.9 0.0 0.1
11:38 10.4 8.8 90 1015.5 18.3 S 25.9 0.0 0.1
11:39 10.5 8.9 90 1015.7 17.4 SSW 25.9 0.0 0.1
11:40 10.5 8.9 90 1015.6 23.5 SE 25.9 0.0 0.1
11:41 10.5 8.9 90 1015.7 21.3 SE 25.9 0.0 0.1
11:42 10.5 9.1 91 1015.7 20.6 NE 25.9 0.0 0.1
11:43 10.5 9.1 91 1015.5 26.6 SE 26.6 0.0 0.1
11:44 10.5 9.1 91 1015.6 27.3 S 30.4 0.0 0.1
11:45 10.5 9.1 91 1015.5 19.7 S 30.4 0.0 0.1
11:46 10.5 9.1 91 1015.6 19.0 S 30.4 0.0 0.1
11:47 10.5 9.1 91 1015.5 21.3 S 30.4 0.0 0.1
11:48 10.6 9.2 91 1015.7 18.3 S 30.4 0.0 0.1
11:49 10.6 9.2 91 1015.5 20.6 SE 30.4 0.0 0.1
11:50 10.6 9.2 91 1015.6 20.6 SE 30.4 0.0 0.1
11:51 10.6 9.2 91 1015.7 19.0 SE 30.4 0.0 0.1
11:52 10.6 9.2 91 1015.8 22.1 SE 30.4 0.0 0.1
11:53 10.6 9.2 91 1015.6 28.2 SE 30.4 0.0 0.1
11:54 10.6 9.2 91 1015.6 22.1 S 30.4 0.0 0.1
11:55 10.6 9.2 91 1015.7 23.5 S 28.2 0.0 0.1
11:56 10.6 9.2 91 1015.4 25.1 SE 28.2 0.0 0.1
11:57 10.6 9.2 91 1015.5 25.1 SE 28.2 0.0 0.1
11:58 10.6 9.2 91 1015.7 21.3 S 28.2 0.0 0.1
11:59 10.6 9.2 91 1015.4 21.3 SE 28.2 0.0 0.1
12:00 10.6 9.2 91 1015.6 25.1 S 28.2 0.0 0.1
12:01 10.6 9.2 91 1015.4 22.8 SSE 28.2 0.0 0.1
12:02 10.6 9.4 92 1015.5 27.3 S 28.2 0.0 0.1
12:03 10.6 9.4 92 1015.5 19.0 SE 27.3 0.0 0.1
12:04 10.6 9.4 92 1015.4 20.6 S 27.3 0.0 0.1
12:05 10.6 9.4 92 1015.4 20.6 S 27.3 0.0 0.1
12:06 10.6 9.4 92 1015.4 17.4 S 27.3 0.0 0.1
12:07 10.6 9.4 92 1015.5 21.3 S 27.3 0.0 0.1
12:08 10.7 9.5 92 1015.5 22.8 S 27.3 0.0 0.1
12:09 10.7 9.5 92 1015.4 20.6 S 27.3 0.0 0.1
12:10 10.7 9.5 92 1015.6 25.1 SE 27.3 0.0 0.1
12:11 10.7 9.5 92 1015.8 23.5 SE 27.3 0.0 0.1
12:12 10.6 9.4 92 1015.5 24.4 S 27.3 0.0 0.1
12:13 10.6 9.4 92 1015.6 20.6 S 25.1 0.0 0.1
12:14 10.6 9.4 92 1015.6 25.9 SE 25.9 0.0 0.1
12:15 10.6 9.4 92 1015.6 25.1 E 25.9 0.0 0.1
12:16 10.7 9.5 92 1015.7 23.5 S 25.9 0.0 0.1
12:17 10.6 9.4 92 1015.4 21.3 SE 25.9 0.0 0.1
12:18 10.6 9.4 92 1015.5 22.8 SE 25.9 0.0 0.1
12:19 10.6 9.4 92 1015.6 17.4 S 25.9 0.0 0.1
12:20 10.6 9.4 92 1015.6 21.3 S 25.9 0.0 0.1
12:21 10.6 9.4 92 1015.5 22.8 S 25.9 0.0 0.1
12:22 10.6 9.4 92 1015.5 22.1 S 25.9 0.0 0.1
12:23 10.7 9.5 92 1015.5 24.4 S 27.3 0.0 0.1
12:24 10.7 9.5 92 1015.5 19.0 S 27.3 0.0 0.1
12:25 10.7 9.5 92 1015.4 17.4 NE 27.3 0.0 0.1
12:26 10.7 9.5 92 1015.5 21.3 S 27.3 0.0 0.1
12:27 10.7 9.5 92 1015.4 20.6 S 27.3 0.0 0.1
12:28 10.7 9.5 92 1015.4 17.4 S 27.3 0.0 0.1
12:29 10.7 9.5 92 1015.3 18.3 S 27.3 0.0 0.1
12:30 10.7 9.5 92 1015.4 19.7 SE 27.3 0.0 0.1
12:31 10.7 9.5 92 1015.2 22.8 SE 27.3 0.0 0.1
12:32 10.8 9.6 92 1015.1 21.3 S 27.3 0.0 0.1
12:33 10.8 9.6 92 1015.1 21.3 S 25.9 0.0 0.1
12:34 10.8 9.6 92 1015.3 22.8 S 25.9 0.0 0.1
12:35 10.8 9.7 93 1015.1 23.5 S 25.9 0.0 0.1
12:36 10.8 9.6 92 1015.3 19.7 SE 25.9 0.0 0.1
12:37 10.8 9.7 93 1015.2 17.4 WSW 25.9 0.0 0.1
12:38 10.8 9.6 92 1015.4 21.3 S 25.9 0.0 0.1
12:39 10.8 9.7 93 1015.2 23.5 S 23.5 0.0 0.1
12:40 10.9 9.8 93 1015.2 22.1 SE 23.5 0.0 0.1
12:41 10.9 9.8 93 1015.2 21.3 S 23.5 0.0 0.1
12:42 10.9 9.8 93 1015.2 27.3 SE 27.3 0.0 0.1
12:43 10.9 9.8 93 1015.2 28.2 S 28.2 0.0 0.1
12:44 10.9 9.8 93 1015.2 20.6 SE 28.2 0.0 0.1
12:45 10.9 9.8 93 1015.1 24.4 SE 28.2 0.0 0.1
12:46 10.9 9.8 93 1015.1 19.0 SE 28.2 0.0 0.1
12:47 10.8 9.7 93 1015.2 22.8 S 28.2 0.0 0.1
12:48 10.9 9.8 93 1015.2 25.1 S 28.2 0.0 0.1
12:49 10.9 9.8 93 1015.3 24.4 S 28.2 0.0 0.1
12:50 10.8 9.7 93 1015.1 20.6 SE 28.2 0.0 0.1
12:51 10.8 9.7 93 1015.0 21.3 SE 28.2 0.0 0.1
12:52 10.9 9.8 93 1015.0 25.1 S 28.2 0.0 0.1
12:53 10.8 9.7 93 1015.1 21.3 SE 28.2 0.0 0.1
12:54 10.8 9.7 93 1015.0 20.6 SSW 25.1 0.0 0.1
12:55 10.8 9.7 93 1015.0 20.6 S 25.1 0.0 0.1
12:56 10.8 9.7 93 1015.0 25.1 WSW 25.1 0.0 0.1
12:57 10.9 9.8 93 1015.2 24.4 SE 25.1 0.0 0.1
12:58 10.9 9.8 93 1015.2 24.4 SE 25.1 0.0 0.1
13:11 10.8 9.7 93 1015.0 18.3 SE 30.4 0.0 0.1
13:12 10.8 9.7 93 1015.0 21.3 SE 30.4 0.0 0.1
13:13 10.8 9.7 93 1015.1 26.6 S 30.4 0.0 0.1
13:14 10.8 9.7 93 1015.1 25.1 S 30.4 0.0 0.1
13:15 10.8 9.7 93 1014.9 24.4 SE 30.4 0.0 0.1
13:16 10.8 9.7 93 1015.0 22.8 S 30.4 0.0 0.1
13:17 10.8 9.7 93 1015.1 24.4 S 30.4 0.0 0.1
13:18 10.8 9.7 93 1015.1 24.4 S 30.4 0.0 0.1
13:19 10.8 9.7 93 1015.2 26.6 S 30.4 0.0 0.1
13:20 10.8 9.7 93 1015.0 24.4 S 26.6 0.0 0.1
13:21 10.8 9.7 93 1015.1 20.6 S 26.6 0.0 0.1
13:22 10.8 9.7 93 1015.0 28.9 SSW 28.9 0.0 0.1
13:23 10.8 9.7 93 1015.0 20.6 S 28.9 0.0 0.1
13:24 10.8 9.7 93 1015.0 30.4 SE 30.4 0.8 0.1
13:25 10.8 9.7 93 1014.9 22.1 SE 30.4 0.8 0.1
13:26 10.8 9.7 93 1015.1 19.7 S 30.4 0.8 0.1
13:27 10.8 9.7 93 1014.9 25.1 S 30.4 0.8 0.1
13:28 10.8 9.7 93 1014.9 19.0 S 30.4 0.8 0.1
13:29 10.8 9.7 93 1015.0 16.8 SE 30.4 0.0 0.2
13:30 10.7 9.6 93 1015.0 17.4 E 30.4 0.8 0.2
13:31 10.7 9.6 93 1014.9 27.3 SE 30.4 1.5 0.3
13:32 10.7 9.6 93 1014.9 20.6 SE 30.4 1.5 0.3
13:33 10.8 9.7 93 1014.9 22.8 S 30.4 1.5 0.3
13:34 10.7 9.6 93 1014.9 20.6 SE 30.4 2.3 0.3
13:35 10.8 9.7 93 1014.9 24.4 S 27.3 1.5 0.3
13:36 10.7 9.6 93 1014.9 22.1 WSW 27.3 1.5 0.4
13:37 10.7 9.6 93 1014.9 20.6 S 27.3 1.5 0.4
13:38 10.7 9.6 93 1014.6 21.3 S 27.3 1.5 0.4
13:39 10.7 9.6 93 1014.8 19.0 SE 27.3 0.8 0.4
13:40 10.7 9.6 93 1014.9 21.3 SE 27.3 0.8 0.4
13:41 10.7 9.6 93 1015.0 17.4 S 27.3 0.0 0.4
13:42 10.7 9.6 93 1014.9 21.3 SE 24.4 0.0 0.4
13:43 10.7 9.6 93 1014.8 23.5 S 24.4 0.8 0.4
13:44 10.8 9.7 93 1014.9 20.6 S 24.4 0.8 0.4
13:45 10.7 9.6 93 1014.8 19.7 S 26.6 0.8 0.4
13:46 10.7 9.6 93 1014.8 19.7 S 26.6 0.8 0.4
13:47 10.8 9.7 93 1014.9 18.3 S 26.6 1.5 0.5
13:48 10.7 9.6 93 1014.9 19.0 SE 26.6 0.8 0.5
13:49 10.7 9.6 93 1014.8 24.4 S 26.6 1.5 0.6
13:50 10.7 9.6 93 1014.9 21.3 SSW 26.6 1.5 0.6
13:51 10.7 9.8 94 1014.8 13.0 WSW 26.6 2.3 0.6
13:52 10.7 9.6 93 1014.9 19.7 S 26.6 1.5 0.6
13:53 10.7 9.8 94 1014.7 18.3 S 26.6 2.3 0.7
13:54 10.7 9.6 93 1014.8 22.8 S 26.6 1.5 0.8
13:55 10.7 9.6 93 1014.8 19.0 S 24.4 2.3 0.8
13:56 10.7 9.6 93 1014.6 26.6 S 26.6 2.3 0.8
13:57 10.6 9.7 94 1014.7 20.6 S 26.6 2.3 0.8
13:58 10.7 9.8 94 1014.7 17.4 WSW 26.6 1.5 0.8
13:59 10.6 9.7 94 1014.8 20.6 WSW 26.6 2.3 0.9
14:00 10.7 9.8 94 1014.8 22.8 SE 26.6 1.5 0.9
14:01 10.7 9.8 94 1014.8 22.8 SE 26.6 0.8 0.9
14:02 10.7 9.8 94 1014.8 21.3 S 26.6 1.5 0.9
14:03 10.7 9.8 94 1014.8 19.0 S 26.6 2.3 1.0
14:04 10.7 9.8 94 1014.9 16.8 S 26.6 1.5 1.0
14:05 10.7 9.8 94 1014.8 23.5 S 26.6 1.5 1.0
14:06 10.7 9.8 94 1014.8 22.1 S 26.6 2.3 1.1
14:07 10.7 9.8 94 1014.7 22.1 S 23.5 2.3 1.1
14:08 10.7 9.8 94 1014.8 13.0 SE 23.5 1.5 1.1
14:09 10.7 9.8 94 1014.6 17.4 SE 23.5 2.3 1.2
14:10 10.7 9.8 94 1014.6 20.6 WSW 23.5 2.3 1.3
14:11 10.7 9.8 94 1014.5 16.8 SE 23.5 3.0 1.3
14:12 8.1 7.2 94 1014.6 18.3 S 23.5 2.3 1.3
14:13 10.7 9.8 94 1014.7 14.5 SE 23.5 2.3 1.4
14:14 10.7 9.8 94 1014.7 19.0 S 23.5 2.3 1.4
14:15 10.8 9.9 94 1014.7 22.1 SE 23.5 2.3 1.4
14:16 10.7 9.8 94 1014.7 22.1 SE 22.8 1.5 1.4
14:17 10.7 9.8 94 1014.9 23.5 SE 23.5 1.5 1.4
14:18 10.7 9.8 94 1014.6 22.1 S 23.5 1.5 1.4
14:19 10.7 9.8 94 1014.8 25.1 S 25.1 1.5 1.5
14:20 10.7 9.8 94 1014.6 22.1 S 25.1 1.5 1.5
14:21 10.7 9.8 94 1014.6 16.8 S 25.1 1.5 1.6
14:22 10.7 9.8 94 1014.6 22.1 SE 25.1 1.5 1.6
14:23 10.7 9.8 94 1014.5 21.3 SE 25.1 2.3 1.6
14:24 10.7 9.8 94 1014.6 21.3 SE 25.1 1.5 1.6
14:25 10.6 9.7 94 1014.7 25.9 S 25.9 2.3 1.8
14:26 10.6 9.7 94 1014.6 20.6 S 25.9 2.3 1.8
14:27 10.7 9.8 94 1014.7 19.0 S 25.9 2.3 1.8
14:28 10.6 9.7 94 1014.6 17.4 SE 25.9 2.3 1.8
14:29 10.7 9.8 94 1014.6 20.6 SE 25.9 3.0 1.9
14:30 10.6 9.7 94 1014.7 23.5 S 25.9 2.3 1.9
14:31 10.7 9.9 95 1014.7 15.9 S 25.9 2.3 2.0
14:32 10.6 9.8 95 1014.7 21.3 WSW 25.9 2.3 2.0
14:33 10.6 9.7 94 1014.5 18.3 S 25.9 2.3 2.0
14:34 10.6 9.7 94 1014.7 19.7 SE 25.9 1.5 2.0
14:35 10.6 9.8 95 1014.6 18.3 WSW 25.9 2.3 2.1
14:36 10.6 9.8 95 1014.6 21.3 S 23.5 2.3 2.1
14:37 10.6 9.8 95 1014.4 19.0 SSW 23.5 2.3 2.2
14:38 10.6 9.8 95 1014.5 20.6 S 23.5 2.3 2.2
14:39 10.6 9.8 95 1014.4 15.9 S 23.5 3.0 2.3
14:40 10.6 9.8 95 1014.4 18.3 NNE 21.3 2.3 2.3
14:41 10.6 9.8 95 1014.4 19.0 NNE 21.3 1.5 2.3
14:42 10.7 9.9 95 1014.4 19.0 WSW 21.3 2.3 2.3
14:43 10.6 9.8 95 1014.5 21.3 SE 21.3 1.5 2.3
14:44 10.6 9.8 95 1014.6 19.7 S 21.3 1.5 2.4
14:45 10.2 9.4 95 1014.4 26.6 S 26.6 1.5 2.4
14:46 10.7 9.9 95 1014.4 21.3 SE 26.6 2.3 2.5
14:47 10.6 9.8 95 1014.5 21.3 S 26.6 2.3 2.5
14:48 10.6 9.8 95 1014.4 16.8 S 26.6 2.3 2.5
14:49 10.8 10.0 95 1014.5 16.8 S 26.6 2.3 2.6
14:50 10.7 9.9 95 1014.6 16.8 S 26.6 2.3 2.6
14:51 10.6 9.8 95 1014.6 13.6 S 26.6 2.3 2.6
14:52 10.6 9.8 95 1014.4 14.5 S 26.6 2.3 2.7
14:53 10.7 9.9 95 1014.5 15.9 S 26.6 2.3 2.7
14:54 10.7 10.1 96 1014.5 19.7 WSW 26.6 1.5 2.8
14:55 10.7 9.9 95 1014.5 22.1 S 22.1 2.3 2.8
14:56 10.7 9.9 95 1014.4 20.6 SE 22.1 1.5 2.8
14:57 10.7 10.1 96 1014.5 19.0 S 22.1 0.8 2.8
14:58 10.7 10.1 96 1014.5 19.0 S 22.1 0.8 2.8
14:59 10.7 10.1 96 1014.4 22.1 S 22.1 0.8 2.8
15:00 10.7 10.1 96 1014.5 21.3 S 22.1 0.8 2.8
15:01 10.7 10.1 96 1014.5 21.3 S 22.1 0.8 2.8
15:02 10.6 10.0 96 1014.4 19.0 S 22.1 0.8 2.8
15:03 10.6 10.0 96 1014.4 19.7 S 22.1 1.5 2.9
15:04 10.6 10.0 96 1014.4 22.1 SE 22.1 2.3 3.0
15:05 10.6 10.0 96 1014.4 19.7 S 25.9 2.3 3.0
15:06 10.6 10.0 96 1014.4 17.4 S 25.9 2.3 3.0
15:07 10.6 10.0 96 1014.3 19.7 S 25.9 3.0 3.1
15:08 10.6 10.0 96 1014.5 20.6 SE 25.9 2.3 3.1
15:09 10.6 10.0 96 1014.5 14.5 S 25.9 1.5 3.1
15:10 10.6 10.0 96 1014.4 19.7 SE 25.9 1.5 3.1
15:11 10.7 10.1 96 1014.3 17.4 SE 25.9 2.3 3.2
15:12 10.6 10.0 96 1014.4 21.3 S 25.9 1.5 3.2
15:13 10.6 10.0 96 1014.4 20.6 SE 25.9 1.5 3.2
15:14 10.7 10.1 96 1014.4 20.6 S 25.9 2.3 3.3
15:15 10.7 10.1 96 1014.2 20.6 S 25.9 1.5 3.3
15:16 10.7 10.1 96 1014.3 15.9 SSE 22.8 0.8 3.3
15:17 10.7 10.1 96 1014.3 23.5 S 23.5 0.8 3.3
15:18 10.6 10.0 96 1014.4 21.3 S 23.5 1.5 3.3
15:19 10.7 10.1 96 1014.4 18.3 S 23.5 0.8 3.3
15:20 10.7 10.1 96 1014.2 21.3 S 23.5 0.8 3.3
15:21 10.7 10.1 96 1014.4 21.3 S 23.5 0.8 3.3
15:22 10.7 10.1 96 1014.1 19.7 S 23.5 0.8 3.3
15:23 10.7 10.1 96 1014.2 22.1 SE 23.5 0.0 3.3
15:24 10.7 10.2 97 1014.2 20.6 SE 23.5 0.8 3.4
15:25 10.7 10.2 97 1014.2 17.4 S 23.5 0.8 3.4
15:26 10.7 10.2 97 1014.2 13.6 S 23.5 0.8 3.4
15:27 10.7 10.2 97 1014.3 24.4 WSW 24.4 0.8 3.4
15:28 10.7 10.2 97 1014.2 19.7 S 24.4 0.8 3.4
15:29 10.7 10.2 97 1014.3 19.0 SE 24.4 0.0 3.4
15:30 10.7 10.2 97 1014.1 14.5 S 24.4 0.8 3.5
15:31 10.7 10.2 97 1014.2 15.9 S 24.4 1.5 3.5
15:32 10.7 10.2 97 1014.2 22.8 SE 24.4 1.5 3.5
15:33 10.7 10.2 97 1014.2 20.6 SE 24.4 2.3 3.6
15:34 10.7 10.2 97 1014.2 18.3 S 24.4 2.3 3.7
15:35 10.7 10.2 97 1014.2 17.4 S 24.4 2.3 3.7
15:36 10.7 10.2 97 1014.2 15.9 S 24.4 1.5 3.7
15:37 10.7 10.2 97 1014.0 12.1 S 24.4 1.5 3.7
15:38 10.7 10.2 97 1014.1 21.3 SE 22.8 0.8 3.7
15:39 10.7 10.2 97 1014.0 13.6 SE 22.8 1.5 3.7
15:40 10.7 10.2 97 1014.1 12.1 WSW 22.8 0.8 3.7
15:41 10.7 10.2 97 1014.2 16.8 S 22.8 0.8 3.7
15:42 10.7 10.2 97 1014.1 21.3 SE 22.8 1.5 3.8
15:43 10.7 10.2 97 1014.0 19.7 S 21.3 1.5 3.8
15:44 10.7 10.2 97 1014.2 16.8 SE 21.3 0.8 3.8
15:45 10.7 10.2 97 1014.1 20.6 S 21.3 0.8 3.8
15:46 10.7 10.2 97 1014.2 14.5 S 21.3 0.8 3.8
15:47 10.7 10.2 97 1013.9 15.2 SE 21.3 0.0 3.8
15:48 10.7 10.2 97 1014.2 18.3 SE 21.3 0.0 3.8
15:49 10.7 10.4 98 1014.3 22.8 SE 23.5 0.0 3.8
15:50 10.7 10.2 97 1014.1 22.1 SE 23.5 0.0 3.8
15:51 10.7 10.2 97 1014.1 20.6 S 23.5 0.8 3.8
15:52 10.7 10.4 98 1014.2 19.7 S 23.5 0.8 3.8
15:53 10.7 10.4 98 1014.1 21.3 S 23.5 0.8 3.8
15:54 10.7 10.4 98 1014.1 20.6 S 23.5 0.8 3.8
15:55 10.7 10.4 98 1014.2 15.9 S 23.5 0.8 3.8
15:56 10.7 10.4 98 1014.3 18.3 S 23.5 0.0 3.8
15:57 10.7 10.4 98 1014.1 14.5 S 23.5 0.0 3.8
15:58 10.7 10.4 98 1014.1 15.2 S 23.5 0.0 3.8
15:59 10.7 10.4 98 1014.3 16.8 SSW 23.5 0.0 3.8
16:00 10.7 10.4 98 1014.2 15.9 S 22.1 0.8 3.9
16:01 10.7 10.4 98 1014.2 15.9 S 21.3 0.8 3.9
16:02 10.7 10.4 98 1014.3 18.3 SE 21.3 0.8 3.9
16:03 10.7 10.4 98 1014.3 15.2 S 21.3 0.8 3.9
16:04 10.7 10.4 98 1014.3 13.6 S 20.6 0.8 3.9
16:05 10.7 10.4 98 1014.4 14.5 S 19.7 0.0 3.9
16:06 10.7 10.4 98 1014.3 13.6 S 19.7 0.0 3.9
16:07 10.7 10.4 98 1014.4 15.9 SE 19.7 0.0 3.9
16:08 10.6 10.3 98 1014.3 14.5 S 19.7 0.0 3.9
16:09 10.7 10.4 98 1014.2 11.4 WSW 19.7 0.0 3.9
16:10 10.7 10.4 98 1014.2 11.4 WSW 19.7 0.0 3.9
16:11 10.6 10.3 98 1014.3 9.8 WSW 19.7 0.8 4.0
16:12 10.6 10.3 98 1014.3 13.0 S 19.7 0.8 4.0
16:13 10.7 10.4 98 1014.2 14.5 SE 17.4 0.8 4.0
16:14 10.6 10.3 98 1014.3 15.2 S 17.4 0.8 4.0
16:15 11.2 10.9 98 1014.3 13.6 S 17.4 0.8 4.0
16:16 10.6 10.3 98 1014.3 16.8 SSW 16.8 0.0 4.0
16:17 10.6 10.3 98 1014.3 16.8 S 16.8 0.0 4.0
16:18 10.6 10.3 98 1014.4 17.4 S 17.4 0.8 4.0
16:19 10.7 10.4 98 1014.4 15.9 S 17.4 1.5 4.1
16:20 10.7 10.4 98 1014.2 19.0 S 19.0 1.5 4.1
16:21 10.7 10.4 98 1014.3 9.8 SSW 19.0 1.5 4.1
16:22 10.6 10.3 98 1014.2 15.2 S 19.0 2.3 4.2
16:23 10.6 10.5 99 1014.3 13.6 S 19.0 1.5 4.2
16:24 10.6 10.5 99 1014.2 15.2 SE 19.0 1.5 4.2
16:25 10.7 10.6 99 1014.2 15.9 WSW 19.0 1.5 4.2
16:26 10.6 10.5 99 1014.3 10.7 S 19.0 1.5 4.2
16:27 10.6 10.5 99 1014.3 13.6 SE 19.0 1.5 4.3
16:28 10.6 10.5 99 1014.3 14.5 WSW 19.0 1.5 4.3
16:29 10.6 10.5 99 1014.2 13.6 WSW 19.0 0.8 4.3
16:30 10.6 10.5 99 1014.2 12.1 S 19.0 1.5 4.3
16:31 10.6 10.5 99 1014.3 13.0 S 17.4 1.5 4.3
16:32 10.6 10.5 99 1014.2 15.9 S 17.4 0.8 4.3
16:33 10.6 10.5 99 1014.3 13.0 WSW 17.4 1.5 4.4
16:34 10.6 10.5 99 1014.3 13.6 S 17.4 1.5 4.4
16:35 10.6 10.5 99 1014.2 13.6 WSW 17.4 0.8 4.4
16:36 10.6 10.5 99 1014.1 13.6 W 17.4 0.8 4.4
16:37 10.6 10.5 99 1014.2 15.2 SSW 17.4 1.5 4.5
16:38 10.6 10.5 99 1014.2 15.2 SSW 17.4 0.8 4.5
16:39 10.6 10.5 99 1014.1 15.9 WSW 17.4 0.8 4.5
16:40 10.6 10.5 99 1014.1 14.5 S 17.4 0.8 4.5
16:41 10.6 10.5 99 1014.1 13.0 S 17.4 0.8 4.5
16:42 10.6 10.5 99 1014.0 10.7 WSW 17.4 0.0 4.5
16:43 10.6 10.5 99 1014.0 9.8 S 17.4 0.0 4.5
16:44 10.6 10.5 99 1014.0 9.8 S 17.4 0.8 4.5
16:45 10.6 10.5 99 1014.2 15.9 WSW 17.4 0.8 4.5
16:46 10.6 10.5 99 1014.1 13.6 S 17.4 0.8 4.5
16:47 10.5 10.4 99 1014.2 14.5 WSW 15.9 0.8 4.5
16:48 10.5 10.4 99 1014.1 13.0 S 15.9 1.5 4.6
16:49 10.5 10.4 99 1014.3 11.4 SE 15.9 0.8 4.6
16:50 10.5 10.4 99 1014.1 13.0 S 15.9 0.8 4.6
16:51 10.5 10.4 99 1014.0 13.6 WSW 15.9 0.8 4.6
16:52 10.5 10.4 99 1014.0 12.1 S 15.9 0.8 4.6
16:53 10.5 10.4 99 1014.1 12.1 WSW 15.9 0.0 4.6
16:54 10.5 10.4 99 1014.2 9.8 S 15.9 0.0 4.6
16:55 10.5 10.4 99 1014.2 13.6 S 15.9 0.0 4.6
16:56 10.5 10.4 99 1014.1 11.4 S 14.5 0.0 4.6
16:57 10.5 10.4 99 1014.2 9.2 SE 14.5 0.8 4.7
16:58 10.5 10.4 99 1014.1 13.6 S 13.6 0.8 4.7
16:59 10.5 10.4 99 1014.2 9.2 S 13.6 0.8 4.7
17:00 10.5 10.4 99 1014.1 11.4 S 13.6 0.8 4.7
17:01 10.5 10.4 99 1014.3 11.4 S 13.6 0.8 4.7
17:02 10.5 10.4 99 1014.1 13.6 WSW 13.6 0.0 4.7
17:03 10.5 10.4 99 1014.0 15.2 S 15.2 0.0 4.7
17:04 10.5 10.4 99 1014.2 15.9 S 15.9 0.0 4.7
17:05 10.5 10.4 99 1014.2 13.0 S 15.9 0.0 4.7
17:06 10.4 10.3 99 1014.3 15.2 S 15.9 0.0 4.7
17:07 10.4 10.3 99 1014.1 16.8 S 16.8 0.0 4.7
17:08 10.4 10.3 99 1014.1 13.0 S 16.8 0.0 4.7
17:09 10.4 10.3 99 1014.1 11.4 SE 16.8 0.0 4.7
17:10 10.4 10.3 99 1014.0 12.1 S 16.8 0.0 4.7
17:11 10.5 10.4 99 1014.3 13.6 S 16.8 0.0 4.7
17:12 10.4 10.3 99 1014.2 15.2 S 16.8 0.0 4.7
17:13 10.4 10.3 99 1014.2 13.6 SE 16.8 0.0 4.7
17:15 10.4 10.3 99 1014.1 11.4 S 16.8 0.0 4.7
17:16 10.4 10.3 99 1014.1 15.2 SE 16.8 0.0 4.7
17:17 10.4 10.3 99 1014.2 10.7 SE 16.8 0.0 4.7
17:18 10.4 10.3 99 1014.1 13.0 S 15.2 0.0 4.7
17:19 10.4 10.3 99 1014.1 11.4 S 15.2 0.0 4.7
17:20 10.4 10.3 99 1014.0 13.6 WSW 15.2 0.0 4.7
17:21 10.4 10.3 99 1014.0 13.6 S 15.2 0.0 4.7
17:22 10.4 10.3 99 1014.0 13.6 WSW 15.2 0.0 4.7
17:23 10.4 10.3 99 1014.1 13.0 S 15.2 0.0 4.7
17:24 10.4 10.3 99 1014.1 11.4 S 15.2 0.0 4.7
17:25 10.4 10.3 99 1013.9 14.5 S 15.2 0.0 4.7
17:26 10.4 10.3 99 1013.9 14.5 S 15.2 0.0 4.7
17:27 10.4 10.3 99 1013.9 13.6 WSW 15.2 0.0 4.7
17:28 10.4 10.3 99 1013.9 14.5 S 15.2 0.0 4.7
17:29 10.4 10.3 99 1013.9 9.8 WSW 15.2 0.0 4.7
17:30 10.4 10.3 99 1014.0 14.5 S 15.2 0.8 4.7
17:31 10.4 10.3 99 1014.1 14.5 S 15.2 0.8 4.7
17:32 10.4 10.3 99 1014.0 15.2 S 15.2 0.8 4.7
17:33 10.4 10.3 99 1014.0 20.6 S 20.6 1.5 4.8
17:34 10.5 10.4 99 1014.3 14.5 S 20.6 1.5 4.8
17:35 10.5 10.4 99 1014.2 13.6 S 20.6 1.5 4.9
17:36 10.5 10.4 99 1014.1 13.6 S 20.6 1.5 4.9
17:37 10.5 10.4 99 1014.3 13.0 SE 20.6 1.5 4.9
17:38 10.5 10.4 99 1014.3 12.1 SE 20.6 0.8 4.9
17:39 10.5 10.4 99 1014.1 13.0 S 20.6 0.8 4.9
17:40 10.5 10.4 99 1014.2 17.4 S 20.6 0.0 4.9
17:41 10.5 10.4 99 1014.1 14.5 WSW 20.6 0.0 4.9
17:42 10.5 10.4 99 1014.3 17.4 S 20.6 0.0 4.9
17:43 10.5 10.4 99 1014.3 18.3 S 20.6 0.8 4.9
17:44 10.5 10.4 99 1014.1 11.4 S 18.3 0.8 4.9
17:45 10.5 10.4 99 1014.3 13.6 S 18.3 0.8 4.9
17:46 10.5 10.4 99 1014.3 15.2 SE 18.3 0.8 4.9
17:47 10.5 10.4 99 1014.3 18.3 WSW 18.3 0.8 4.9
17:48 10.5 10.4 99 1014.4 13.6 S 18.3 0.0 4.9
17:49 10.5 10.4 99 1014.4 13.6 S 18.3 0.0 4.9
17:50 10.5 10.4 99 1014.4 15.2 S 18.3 0.0 4.9
17:51 10.4 10.3 99 1014.4 14.5 S 18.3 0.0 4.9
17:52 10.5 10.4 99 1014.4 17.4 S 18.3 0.0 4.9
17:53 10.4 10.3 99 1014.4 18.3 S 18.3 0.0 4.9
17:54 10.5 10.4 99 1014.5 12.1 S 18.3 0.0 4.9
17:55 10.5 10.4 99 1014.6 15.2 SSE 18.3 0.0 4.9
17:56 10.5 10.4 99 1014.4 15.9 WSW 18.3 0.0 4.9
17:57 10.4 10.3 99 1014.4 13.6 WSW 18.3 0.0 4.9
17:58 10.4 10.3 99 1014.4 15.2 S 18.3 0.0 4.9
17:59 10.4 10.3 99 1014.4 13.0 WSW 18.3 0.0 4.9
18:00 10.4 10.3 99 1014.5 12.1 S 18.3 0.0 4.9
18:01 10.4 10.3 99 1014.5 12.1 S 18.3 0.0 4.9
18:02 10.4 10.3 99 1014.5 12.1 S 18.3 0.0 4.9
18:03 10.4 10.3 99 1014.6 12.1 S 16.8 0.0 4.9
18:04 10.4 10.3 99 1014.6 12.1 S 16.8 0.0 4.9
18:05 10.4 10.3 99 1014.4 12.1 S 16.8 0.0 4.9
18:06 10.4 10.3 99 1014.5 13.6 S 16.8 0.0 4.9
18:07 10.4 10.3 99 1014.4 13.6 S 16.8 0.0 4.9
18:08 10.4 10.3 99 1014.5 13.0 SE 15.2 0.0 4.9
18:09 10.4 10.3 99 1014.5 12.1 S 14.5 0.0 4.9
18:10 10.4 10.3 99 1014.4 13.0 SSW 14.5 0.0 4.9
18:11 10.4 10.3 99 1014.5 15.2 SE 15.2 0.0 4.9
18:12 10.4 10.3 99 1014.6 11.4 WSW 15.2 0.0 4.9
18:13 10.4 10.3 99 1014.5 13.0 SE 19.0 0.0 4.9
18:14 10.4 10.3 99 1014.5 14.5 WSW 19.0 0.0 4.9
18:15 10.4 10.3 99 1014.6 15.9 SE 19.0 0.0 4.9
18:16 10.4 10.3 99 1014.5 12.1 S 19.0 0.0 4.9
18:17 10.4 10.3 99 1014.6 12.1 SSW 19.0 0.0 4.9
18:18 10.4 10.3 99 1014.7 13.0 S 19.0 0.0 4.9
18:19 10.4 10.3 99 1014.5 15.2 WSW 19.0 0.0 4.9
18:20 10.3 10.2 99 1014.6 13.0 WSW 19.0 0.0 4.9
18:21 10.3 10.2 99 1014.7 14.5 S 19.0 0.0 4.9
18:22 10.3 10.2 99 1014.7 9.8 S 19.0 0.0 4.9
18:23 10.3 10.2 99 1014.7 13.0 S 19.0 1.5 5.0
18:24 10.3 10.2 99 1014.8 13.0 S 15.9 1.5 5.0
18:25 10.3 10.2 99 1014.8 12.1 S 15.9 2.3 5.1
18:26 10.3 10.2 99 1014.9 11.4 S 15.2 2.3 5.1
18:27 10.3 10.2 99 1014.9 10.7 S 15.2 3.0 5.2
18:28 10.3 10.2 99 1014.8 10.7 S 15.2 2.3 5.2
18:29 10.3 10.2 99 1014.9 13.0 WSW 15.2 3.0 5.3
18:30 10.3 10.2 99 1014.9 10.7 WSW 15.2 2.3 5.4
18:31 10.3 10.2 99 1014.8 13.6 S 15.2 3.8 5.4
18:32 10.3 10.2 99 1014.8 11.4 SSW 15.2 3.8 5.5
18:33 10.3 10.2 99 1014.8 12.1 SE 15.2 3.0 5.5
18:34 10.2 10.1 99 1014.9 13.6 WSW 15.2 3.0 5.5
18:35 10.2 10.1 99 1014.8 12.1 S 15.2 3.8 5.6
18:36 10.2 10.1 99 1014.8 16.8 S 16.8 2.3 5.6
18:37 10.2 10.1 99 1014.9 12.1 SE 16.8 2.3 5.7
18:38 10.2 10.1 99 1015.0 9.8 S 16.8 2.3 5.7
18:39 10.2 10.1 99 1014.8 15.9 S 16.8 2.3 5.7
18:40 10.2 10.1 99 1014.7 11.4 S 16.8 1.5 5.7
18:41 10.2 10.1 99 1014.8 10.7 S 16.8 2.3 5.8
18:42 10.2 10.1 99 1014.7 15.9 S 16.8 1.5 5.9
18:43 10.2 10.1 99 1014.9 19.0 WSW 19.0 2.3 5.9
18:44 10.2 10.1 99 1014.8 15.2 S 19.0 2.3 5.9
18:45 10.2 10.1 99 1014.8 11.4 S 19.0 2.3 5.9
18:46 10.1 10.0 99 1014.9 15.2 SSW 19.0 1.5 5.9
18:47 10.2 10.1 99 1014.7 13.0 S 19.0 2.3 6.0
18:48 10.1 10.0 99 1014.8 13.6 SE 19.0 1.5 6.0
18:49 10.1 10.0 99 1014.7 14.5 S 19.0 0.8 6.0
18:50 10.1 10.0 99 1014.8 13.6 S 19.0 0.8 6.0
18:51 10.1 10.0 99 1014.6 11.4 SE 19.0 1.5 6.0
18:52 10.1 10.0 99 1014.8 9.8 SE 19.0 0.8 6.0
18:53 10.1 10.0 99 1014.4 13.6 WSW 19.0 0.8 6.0
18:54 10.1 10.0 99 1014.6 8.3 S 15.2 0.8 6.0
18:55 10.1 10.0 99 1014.6 12.1 S 15.2 0.8 6.0
18:56 10.1 10.0 99 1014.5 9.2 WSW 15.2 0.0 6.0
18:57 10.1 10.0 99 1014.6 11.4 S 14.5 0.8 6.1
18:58 10.1 10.0 99 1014.5 8.3 WSW 14.5 0.8 6.1
18:59 10.1 10.0 99 1014.5 9.2 S 13.6 0.8 6.1
19:00 10.1 10.0 99 1014.5 11.4 S 13.6 0.8 6.1
19:01 10.1 10.0 99 1014.5 11.4 S 13.6 0.8 6.1
19:02 10.1 10.0 99 1014.4 11.4 S 13.6 0.0 6.1
19:03 10.1 10.0 99 1014.5 11.4 S 13.6 0.0 6.1
19:04 10.1 10.0 99 1014.5 11.4 S 12.1 0.0 6.1
19:05 10.1 10.0 99 1014.5 11.4 S 12.1 0.0 6.1
19:06 10.1 10.0 99 1014.3 10.7 S 11.4 0.0 6.1
19:07 10.1 10.0 99 1014.4 13.6 SE 13.6 0.0 6.1
19:08 10.1 10.0 99 1014.4 10.7 S 13.6 0.0 6.1
19:09 10.1 10.0 99 1014.4 13.0 WSW 13.6 0.0 6.1
19:10 10.1 10.0 99 1014.5 13.0 WSW 13.6 0.0 6.1
19:11 10.1 10.0 99 1014.4 13.0 WSW 13.6 0.0 6.1
19:12 10.1 10.0 99 1014.3 11.4 S 13.6 0.0 6.1
19:13 10.1 10.0 99 1014.4 9.2 S 13.6 0.0 6.1
19:14 10.1 10.0 99 1014.5 9.8 WSW 13.6 0.0 6.1
19:15 10.1 10.0 99 1014.6 13.6 WSW 13.6 0.0 6.1
19:16 10.1 10.0 99 1014.7 12.1 S 13.6 0.0 6.1
19:17 10.1 10.0 99 1014.6 13.0 WSW 13.6 0.0 6.1
19:18 10.1 10.0 99 1014.5 8.3 S 13.6 0.0 6.1
19:19 10.1 10.0 99 1014.5 14.5 S 14.5 0.0 6.1
19:20 10.1 10.0 99 1014.5 15.9 S 15.9 0.0 6.1
19:21 10.1 10.0 99 1014.5 14.5 SE 15.9 0.0 6.1
19:22 10.1 10.0 99 1014.5 13.6 SE 15.9 0.0 6.1
19:23 10.1 10.0 99 1014.6 10.7 SE 15.9 0.0 6.1
19:24 10.1 10.0 99 1014.5 9.8 S 15.9 0.0 6.1
19:25 10.1 10.0 99 1014.5 9.8 S 15.9 0.0 6.1
19:26 10.1 10.0 99 1014.5 9.2 SE 15.9 0.0 6.1
19:27 10.1 10.0 99 1014.5 9.2 SE 15.9 0.0 6.1
19:28 10.0 9.9 99 1014.6 12.1 WSW 15.9 0.0 6.1
19:29 10.1 10.0 99 1014.6 10.7 SE 15.9 0.0 6.1
19:30 10.0 9.9 99 1014.6 10.7 WSW 14.5 0.0 6.1
19:31 10.0 9.9 99 1014.7 13.0 S 14.5 0.0 6.1
19:32 10.1 10.0 99 1014.6 15.2 S 15.2 0.0 6.1
19:33 10.1 10.0 99 1014.5 15.2 S 15.2 0.0 6.1
19:34 10.0 9.9 99 1014.7 17.4 S 17.4 0.0 6.1
19:35 10.1 10.0 99 1014.7 11.4 S 17.4 0.0 6.1
19:36 10.0 9.9 99 1014.7 9.8 WSW 17.4 0.0 6.1
19:37 10.0 9.9 99 1014.8 11.4 S 17.4 0.0 6.1
19:38 10.0 9.9 99 1014.8 13.0 S 17.4 0.0 6.1
19:39 10.0 9.9 99 1014.7 13.0 S 17.4 0.0 6.1
19:40 10.0 9.9 99 1014.7 11.4 S 17.4 0.8 6.2
19:41 10.0 9.9 99 1014.8 13.0 S 17.4 0.8 6.2
19:42 10.0 9.9 99 1014.6 8.3 S 17.4 1.5 6.2
19:43 10.0 9.9 99 1014.7 11.4 S 17.4 2.3 6.3
19:44 10.0 9.9 99 1014.7 11.4 S 14.5 2.3 6.3
19:45 10.0 9.9 99 1014.7 9.8 S 13.0 2.3 6.4
19:46 10.0 9.9 99 1014.7 9.8 S 13.0 3.0 6.4
19:47 10.0 9.9 99 1014.6 12.1 WSW 13.0 2.3 6.4
19:48 10.0 9.9 99 1014.6 13.0 WSW 13.0 2.3 6.5
19:49 10.0 9.9 99 1014.6 15.9 S 15.9 2.3 6.5
19:50 10.0 9.9 99 1014.6 11.4 S 15.9 2.3 6.6
19:51 10.0 9.9 99 1014.6 14.5 WSW 15.9 1.5 6.6
19:52 10.0 9.9 99 1014.6 13.0 WSW 15.9 1.5 6.6
19:53 10.0 9.9 99 1014.5 13.6 S 15.9 1.5 6.6
19:54 10.0 9.9 99 1014.7 12.1 S 15.9 1.5 6.7
19:55 10.0 9.9 99 1014.6 10.7 S 15.9 1.5 6.7
19:56 10.0 9.9 99 1014.4 7.6 WSW 15.9 2.3 6.7
19:57 10.0 9.9 99 1014.4 13.6 S 15.9 2.3 6.7
19:58 10.0 9.9 99 1014.4 13.6 S 15.9 1.5 6.7
19:59 10.0 9.9 99 1014.6 13.6 WSW 14.5 1.5 6.7
20:00 10.0 9.9 99 1014.5 13.6 SE 14.5 0.8 6.7
20:01 10.0 9.9 99 1014.4 13.6 SE 14.5 0.0 6.7
20:02 10.0 9.9 99 1014.3 13.6 SE 13.6 0.0 6.7
20:03 10.0 9.9 99 1014.3 13.6 SE 13.6 0.0 6.7
20:04 10.0 9.9 99 1014.3 13.6 SE 13.6 0.0 6.7
20:05 10.0 9.9 99 1014.3 13.6 SE 13.6 0.0 6.7
20:06 9.9 9.8 99 1014.4 11.4 S 13.6 0.8 6.8
20:07 10.0 9.9 99 1014.3 12.1 S 13.6 0.8 6.8
20:08 9.9 9.8 99 1014.3 11.4 WSW 13.6 0.8 6.8
20:09 9.9 9.8 99 1014.2 15.9 S 15.9 0.8 6.8
20:10 9.9 9.8 99 1014.2 12.1 S 15.9 0.8 6.8
20:11 9.9 9.8 99 1014.3 8.3 S 15.9 0.0 6.8
20:12 9.9 9.8 99 1014.4 9.2 S 15.9 0.0 6.8
20:13 9.9 9.8 99 1014.2 10.7 WSW 15.9 0.0 6.8
20:14 9.9 9.8 99 1014.2 14.5 WSW 15.9 0.0 6.8
20:15 9.9 9.8 99 1014.4 12.1 S 15.9 0.0 6.8
20:16 9.9 9.8 99 1014.2 9.8 SE 15.9 0.0 6.8
20:17 9.9 9.8 99 1014.2 9.8 SE 15.9 0.0 6.8
20:18 9.9 9.8 99 1014.3 11.4 WSW 15.9 0.0 6.8
20:19 9.9 9.8 99 1014.1 9.8 SE 15.9 0.0 6.8
20:20 9.9 9.8 99 1014.2 8.3 S 15.9 0.0 6.8
20:21 9.9 9.8 99 1014.2 6.9 WSW 14.5 0.0 6.8
20:22 9.9 9.8 99 1014.2 7.6 S 14.5 0.0 6.8
20:23 9.9 9.8 99 1014.1 9.8 S 14.5 0.0 6.8
20:24 9.9 9.8 99 1014.2 13.6 WSW 14.5 0.8 6.9
20:25 9.9 9.8 99 1014.4 11.4 SE 13.6 0.8 6.9
20:26 9.9 9.8 99 1014.4 10.7 S 13.6 0.8 6.9
20:27 9.9 9.8 99 1014.0 9.8 SE 13.6 0.8 6.9
20:28 9.9 9.8 99 1014.4 13.0 S 13.6 0.8 6.9
20:29 9.9 9.8 99 1014.2 9.2 S 13.6 0.0 6.9
20:30 9.9 9.8 99 1014.3 9.8 WSW 13.6 0.0 6.9
20:31 9.9 9.8 99 1014.4 13.0 SE 13.6 0.8 6.9
20:32 9.9 9.8 99 1014.3 13.0 SE 13.6 0.8 6.9
20:33 9.9 9.8 99 1014.4 10.7 S 13.6 0.8 6.9
20:34 9.9 9.8 99 1014.4 13.6 S 13.6 0.8 6.9
20:35 9.9 9.8 99 1014.4 8.3 WSW 13.6 1.5 7.0
20:36 9.9 9.8 99 1014.4 11.4 S 13.6 0.8 7.0
20:37 9.9 9.8 99 1014.4 13.0 WSW 13.6 0.8 7.0
20:38 9.9 9.8 99 1014.4 13.0 S 13.6 0.8 7.0
20:39 9.9 9.8 99 1014.2 13.0 S 13.6 0.8 7.0
20:40 9.9 9.8 99 1014.1 9.8 S 13.6 0.0 7.0
20:41 9.9 9.8 99 1014.3 9.8 S 13.6 0.0 7.0
20:42 9.9 9.8 99 1014.3 13.6 WSW 13.6 0.0 7.1
20:43 9.9 9.8 99 1014.4 10.7 S 13.6 0.8 7.1
20:44 9.9 9.8 99 1014.2 12.1 SE 13.6 0.8 7.1
20:45 9.9 9.8 99 1014.2 11.4 WSW 13.6 0.8 7.1
20:46 9.9 9.8 99 1014.4 13.6 WSW 13.6 0.8 7.1
20:47 9.9 9.8 99 1014.4 10.7 S 13.6 0.8 7.1
20:48 9.9 9.8 99 1014.4 13.6 S 13.6 0.0 7.1
20:49 9.9 9.8 99 1014.2 14.5 S 14.5 0.0 7.1
20:50 9.9 9.8 99 1014.2 9.8 S 14.5 0.0 7.1
20:51 9.9 9.8 99 1014.5 6.9 SE 14.5 0.0 7.1
20:52 9.9 9.8 99 1014.3 11.4 S 14.5 0.8 7.1
20:53 9.9 9.8 99 1014.3 13.0 S 15.2 0.8 7.1
20:54 9.9 9.8 99 1014.3 10.7 S 15.2 0.8 7.1
20:55 9.9 9.8 99 1014.4 12.1 S 15.2 1.5 7.2
20:56 9.9 9.8 99 1014.4 12.1 S 15.2 1.5 7.2
20:57 9.9 9.8 99 1014.3 14.5 WSW 19.0 0.8 7.2
20:58 9.9 9.8 99 1014.3 13.0 S 19.0 0.8 7.2
20:59 9.9 9.8 99 1014.4 15.9 WSW 19.0 1.5 7.2
21:00 9.9 9.8 99 1014.4 13.0 S 19.0 0.8 7.2
21:01 9.9 9.8 99 1014.1 13.0 S 19.0 0.8 7.2
21:02 9.9 9.8 99 1014.2 13.0 S 19.0 0.8 7.2
21:03 9.9 9.8 99 1014.3 14.5 S 19.0 1.5 7.3
21:04 9.8 9.7 99 1014.5 13.0 S 19.0 0.8 7.3
21:05 9.8 9.7 99 1014.4 13.6 S 19.0 1.5 7.4
21:06 9.8 9.7 99 1014.5 13.6 S 19.0 1.5 7.4
21:07 9.8 9.7 99 1014.5 15.2 S 15.9 2.3 7.4
21:08 9.8 9.7 99 1014.4 12.1 S 15.9 1.5 7.4
21:09 9.8 9.7 99 1014.3 13.6 S 15.9 2.3 7.6
21:10 9.8 9.7 99 1014.1 8.3 S 15.9 2.3 7.6
21:11 9.8 9.7 99 1013.8 8.3 S 15.9 3.0 7.6
21:12 9.8 9.7 99 1013.8 9.8 SE 15.9 3.0 7.7
21:13 9.8 9.7 99 1014.0 9.2 S 15.9 3.8 7.7
21:14 9.8 9.7 99 1013.9 13.0 SE 15.9 3.8 7.8
21:15 9.7 9.6 99 1013.9 13.0 S 15.9 4.5 7.9
21:16 9.8 9.7 99 1013.8 10.7 SE 15.9 3.8 7.9
21:17 9.7 9.6 99 1013.9 7.6 SE 15.9 3.8 8.0
21:18 9.7 9.6 99 1013.9 13.0 SE 15.9 3.0 8.0
21:19 9.7 9.6 99 1013.9 10.7 S 15.9 3.0 8.1
21:20 9.7 9.6 99 1013.9 9.2 S 13.0 1.5 8.1
21:21 9.7 9.6 99 1013.9 8.3 S 13.0 1.5 8.1
21:22 9.7 9.6 99 1013.8 7.6 WSW 13.0 0.8 8.1
21:23 9.7 9.6 99 1013.9 9.2 SE 13.0 0.8 8.1
21:24 9.6 9.5 99 1013.9 13.6 SE 13.6 0.0 8.1
21:25 9.6 9.5 99 1013.9 11.4 S 13.6 0.0 8.1
21:26 9.6 9.5 99 1013.9 11.4 S 13.6 0.0 8.1
21:27 9.6 9.5 99 1014.1 10.7 S 13.6 0.0 8.1
21:28 9.5 9.4 99 1014.0 12.1 SE 13.6 0.0 8.1
21:29 9.5 9.4 99 1013.9 10.7 S 13.6 0.0 8.1
21:30 9.5 9.4 99 1013.9 10.7 S 13.6 0.0 8.1
21:31 9.5 9.4 99 1013.9 9.8 WSW 14.5 0.8 8.1
21:32 9.5 9.4 99 1013.9 9.2 SE 14.5 0.8 8.1
21:33 9.5 9.4 99 1014.0 9.8 WSW 14.5 0.8 8.1
21:34 9.5 9.4 99 1013.9 11.4 S 14.5 0.8 8.1
21:35 9.6 9.5 99 1014.0 15.2 S 15.2 0.8 8.1
21:36 9.6 9.5 99 1013.8 15.2 WSW 15.2 0.0 8.1
21:37 9.6 9.5 99 1013.8 11.4 SE 15.2 0.0 8.1
21:38 9.6 9.5 99 1013.9 14.5 S 15.2 0.0 8.1
21:39 9.6 9.5 99 1013.8 12.1 S 15.2 0.0 8.1
21:40 9.6 9.5 99 1013.7 12.1 S 15.2 0.0 8.1
21:41 9.6 9.5 99 1013.9 13.6 S 15.2 0.0 8.1
21:42 9.7 9.6 99 1013.7 17.4 WSW 17.4 0.0 8.1
21:43 9.7 9.6 99 1013.8 10.7 S 17.4 0.0 8.1
21:44 9.7 9.6 99 1013.7 12.1 S 17.4 0.0 8.1
21:45 9.7 9.6 99 1013.8 11.4 SE 17.4 0.0 8.1
21:46 9.7 9.6 99 1013.6 14.5 S 17.4 0.0 8.1
21:47 9.7 9.6 99 1013.6 10.7 S 17.4 0.0 8.1
21:48 9.7 9.6 99 1013.8 10.7 SE 17.4 0.0 8.1
21:49 9.7 9.6 99 1013.8 9.8 SE 17.4 0.0 8.1
21:50 9.7 9.6 99 1013.5 9.8 S 17.4 0.0 8.1
21:51 9.7 9.6 99 1013.5 8.3 S 17.4 0.0 8.1
21:52 9.8 9.7 99 1013.4 10.7 S 17.4 0.0 8.1
21:53 9.7 9.6 99 1013.4 11.4 SE 14.5 0.0 8.1
21:54 9.7 9.6 99 1013.5 10.7 SSW 14.5 0.0 8.1
21:55 9.7 9.6 99 1013.5 13.0 S 14.5 0.0 8.1
21:56 9.7 9.6 99 1013.5 14.5 S 14.5 0.0 8.1
21:57 9.7 9.6 99 1013.3 15.2 S 15.2 0.0 8.1
21:58 9.7 9.6 99 1013.3 15.2 S 15.2 0.0 8.1
21:59 9.7 9.6 99 1013.2 12.1 S 15.2 0.0 8.1
22:00 9.7 9.6 99 1013.2 10.7 S 15.2 0.0 8.1
22:01 9.7 9.6 99 1013.0 10.7 S 15.2 0.0 8.1
22:02 9.7 9.6 99 1013.0 10.7 S 15.2 0.0 8.1
22:03 9.7 9.6 99 1013.0 10.7 S 15.2 0.0 8.1
22:04 9.7 9.6 99 1013.0 10.7 S 15.2 0.0 8.1
22:05 9.6 9.5 99 1012.9 11.4 SE 15.2 0.0 8.1
22:06 9.6 9.5 99 1012.9 11.4 WSW 15.2 0.0 8.1
22:07 9.6 9.5 99 1013.0 9.8 SE 15.2 0.0 8.1
22:08 9.5 9.4 99 1013.1 11.4 S 13.0 0.0 8.1
22:09 9.5 9.4 99 1012.9 13.6 SE 13.6 0.0 8.1
22:10 9.5 9.4 99 1012.9 11.4 S 13.6 0.0 8.1
22:11 9.5 9.4 99 1013.0 15.2 S 15.2 0.0 8.1
22:12 9.5 9.4 99 1013.0 13.0 S 15.2 0.0 8.1
22:13 9.5 9.4 99 1012.9 9.8 S 15.2 0.0 8.1
22:14 9.5 9.4 99 1012.9 12.1 SE 15.2 0.0 8.1
22:15 9.4 9.3 99 1013.0 13.6 WSW 15.2 0.0 8.1
22:16 9.4 9.3 99 1013.0 12.1 S 15.2 0.0 8.1
22:17 9.4 9.3 99 1012.9 13.0 S 15.2 0.0 8.1
22:18 9.5 9.4 99 1013.1 9.2 WSW 15.2 0.0 8.1
22:19 9.5 9.4 99 1013.1 12.1 S 15.2 0.0 8.1
22:20 9.5 9.4 99 1013.1 12.1 S 15.2 0.0 8.1
22:21 9.5 9.4 99 1013.0 9.8 S 15.2 0.0 8.1
22:22 9.5 9.4 99 1013.0 8.3 SE 13.6 0.0 8.1
22:23 9.5 9.4 99 1013.1 9.8 S 13.6 0.0 8.1
22:24 9.5 9.4 99 1013.0 12.1 WSW 13.6 0.0 8.1
22:25 9.5 9.4 99 1013.0 12.1 S 13.6 0.0 8.1
22:26 9.5 9.4 99 1013.0 12.1 S 13.0 0.0 8.1
22:27 9.5 9.4 99 1013.1 14.5 S 14.5 0.0 8.1
22:28 9.5 9.4 99 1013.2 10.7 S 14.5 0.0 8.1
22:29 9.6 9.5 99 1013.2 9.2 SE 14.5 0.0 8.1
22:30 9.6 9.5 99 1013.2 11.4 SE 14.5 0.0 8.1
22:31 9.6 9.5 99 1013.1 11.4 S 14.5 0.0 8.1
22:32 9.6 9.5 99 1013.2 11.4 S 14.5 0.0 8.1
22:33 9.6 9.5 99 1013.2 13.6 S 14.5 0.0 8.1
22:34 9.6 9.5 99 1013.3 13.6 SE 14.5 0.0 8.1
22:35 9.6 9.5 99 1013.4 10.7 SE 14.5 0.0 8.1
22:36 9.6 9.5 99 1013.4 13.6 SSE 14.5 0.0 8.1
22:37 9.6 9.5 99 1013.1 10.7 S 14.5 0.0 8.1
22:38 9.6 9.5 99 1013.2 8.3 S 13.6 0.0 8.1
22:39 9.6 9.5 99 1013.2 11.4 SE 13.6 0.0 8.1
22:40 9.6 9.5 99 1013.2 11.4 SE 13.6 0.0 8.1
22:41 9.6 9.5 99 1013.4 14.5 SE 14.5 0.0 8.1
22:42 9.6 9.5 99 1013.3 13.6 S 14.5 0.0 8.1
22:43 9.6 9.5 99 1013.2 11.4 S 14.5 0.0 8.1
22:44 9.6 9.5 99 1013.2 9.8 S 14.5 0.0 8.1
22:45 9.6 9.5 99 1013.3 15.9 SE 15.9 0.0 8.1
22:46 9.6 9.5 99 1013.3 13.6 SE 15.9 0.0 8.1
22:47 9.6 9.5 99 1013.1 13.0 SE 15.9 0.0 8.1
22:48 9.6 9.5 99 1013.2 15.2 WSW 15.9 0.0 8.1
22:49 9.6 9.5 99 1013.3 11.4 WSW 15.9 0.0 8.1
22:50 9.7 9.6 99 1013.3 8.3 WSW 15.9 0.0 8.1
22:51 9.7 9.6 99 1013.2 13.0 S 15.9 0.0 8.1
22:52 9.6 9.5 99 1013.2 12.1 S 15.9 0.0 8.1
22:53 9.6 9.5 99 1013.3 11.4 S 15.9 0.0 8.1
22:54 9.6 9.5 99 1013.4 10.7 WSW 15.9 0.0 8.1
22:55 9.6 9.5 99 1013.2 11.4 S 15.9 0.0 8.1
22:56 9.7 9.6 99 1013.3 9.8 S 15.2 0.0 8.1
22:57 9.6 9.5 99 1013.3 11.4 S 15.2 0.0 8.1
22:58 9.6 9.5 99 1013.3 9.8 S 15.2 0.0 8.1
22:59 9.6 9.5 99 1013.1 15.2 S 15.2 0.0 8.1
23:00 9.6 9.5 99 1013.2 11.4 S 15.2 0.0 8.1
23:01 9.6 9.5 99 1013.1 11.4 S 15.2 0.0 8.1
23:02 9.6 9.5 99 1013.2 11.4 S 15.2 0.0 8.1
23:03 9.6 9.5 99 1013.2 11.4 S 15.2 0.0 8.1
23:04 9.6 9.5 99 1013.2 11.4 S 15.2 0.0 8.1
23:05 9.6 9.5 99 1013.1 15.2 S 15.2 0.0 8.1
23:06 9.7 9.6 99 1013.1 13.6 SE 15.2 0.0 8.1
23:07 9.6 9.5 99 1013.2 17.4 S 17.4 0.0 8.1
23:08 9.6 9.5 99 1013.2 18.3 S 18.3 0.0 8.1
23:09 9.6 9.5 99 1013.3 15.9 SE 18.3 0.0 8.1
23:10 9.6 9.5 99 1013.1 12.1 S 18.3 0.0 8.1
23:11 9.6 9.5 99 1013.2 12.1 SSE 18.3 0.0 8.1
23:12 9.6 9.5 99 1013.1 12.1 SSE 18.3 0.0 8.1
23:13 9.6 9.5 99 1013.2 12.1 S 18.3 0.0 8.1
23:14 9.6 9.5 99 1013.0 9.8 S 18.3 0.0 8.1
23:15 9.6 9.5 99 1013.2 14.5 S 18.3 0.0 8.1
23:16 9.6 9.5 99 1013.1 10.7 SE 18.3 0.0 8.1
23:17 9.6 9.5 99 1013.0 14.5 S 18.3 0.0 8.1
23:18 9.6 9.5 99 1012.9 13.0 S 15.9 0.0 8.1
23:19 9.6 9.5 99 1013.1 13.0 WSW 14.5 0.0 8.1
23:20 9.6 9.5 99 1012.9 12.1 S 14.5 0.0 8.1
23:21 9.6 9.5 99 1012.9 15.2 S 15.2 0.0 8.1
23:22 9.6 9.5 99 1013.0 11.4 S 15.2 0.0 8.1
23:23 9.6 9.5 99 1013.0 13.0 S 15.2 0.0 8.1
23:24 9.6 9.5 99 1013.2 10.7 SE 15.2 0.0 8.1
23:25 9.6 9.5 99 1013.0 12.1 S 15.2 0.0 8.1
23:26 9.6 9.5 99 1012.9 12.1 SE 15.2 0.0 8.1
23:27 9.6 9.5 99 1013.2 9.2 SE 15.2 0.0 8.1
23:28 9.6 9.5 99 1013.0 11.4 WSW 15.2 0.0 8.1
23:29 9.6 9.5 99 1012.9 12.1 SE 15.2 0.0 8.1
23:30 9.6 9.5 99 1013.1 12.1 WSW 15.2 0.0 8.1
23:31 9.5 9.4 99 1013.0 12.1 S 14.5 0.0 8.1
23:32 9.6 9.5 99 1013.0 10.7 SE 13.0 0.0 8.1
23:33 9.5 9.4 99 1013.0 10.7 S 13.0 0.0 8.1
23:34 9.5 9.4 99 1013.0 8.3 SE 12.1 0.0 8.1
23:35 9.5 9.4 99 1013.0 11.4 S 12.1 0.0 8.1
23:36 9.6 9.5 99 1012.9 13.6 S 13.6 0.0 8.1
23:37 9.5 9.4 99 1012.9 11.4 WSW 13.6 0.0 8.1
23:38 9.5 9.4 99 1013.0 8.3 S 13.6 0.0 8.1
23:39 9.5 9.4 99 1013.0 13.0 S 13.6 0.0 8.1
23:40 9.5 9.4 99 1012.9 9.2 S 13.6 0.0 8.1
23:41 9.5 9.4 99 1012.8 9.8 S 13.6 0.0 8.1
23:42 9.5 9.4 99 1012.9 11.4 S 13.6 0.0 8.1
23:43 9.5 9.4 99 1012.7 12.1 S 13.6 0.0 8.1
23:44 9.5 9.4 99 1012.8 9.8 SSW 13.6 0.0 8.1
23:45 9.5 9.4 99 1012.7 9.8 S 13.6 0.0 8.1
23:46 9.5 9.4 99 1012.7 11.4 S 13.6 0.0 8.1
23:47 9.5 9.4 99 1012.6 11.4 SE 13.6 0.0 8.1
23:48 9.5 9.4 99 1012.7 9.2 SE 13.6 0.0 8.1
23:49 9.5 9.4 99 1012.6 13.6 S 13.6 0.0 8.1
23:50 9.5 9.4 99 1012.7 11.4 SE 13.6 0.0 8.1
23:51 9.4 9.3 99 1012.7 6.9 SE 13.6 0.0 8.1
23:52 9.5 9.4 99 1012.6 8.3 S 13.6 0.0 8.1
23:53 9.5 9.4 99 1012.7 8.3 SSE 13.6 0.0 8.1
23:54 9.5 9.4 99 1012.7 9.8 S 13.6 0.0 8.1
23:55 9.4 9.3 99 1012.7 12.1 SE 13.6 0.0 8.1
23:56 9.4 9.3 99 1012.6 10.7 S 13.6 0.0 8.1
23:57 9.4 9.3 99 1012.7 10.7 S 13.6 0.0 8.1
23:58 9.4 9.3 99 1012.7 9.2 S 13.6 0.0 8.1
23:59 9.4 9.3 99 1012.7 9.8 WSW 13.6 0.0 8.1

 

 

UK - WEATHER STATION TOPSITES - UK World Weather Websites

Copyright © Carnkie Weather 2009 - 2020.